FIN73 EFHK-RJAA

Flight info

Callsign FIN73
Flight time 13h 58m
Altitude 36000
Route TEVRU Y75 USUPO DCT BARUX DCT 80N021E 82N020E/M085F360 8930N06000W/N0496F360 DCT DEKMO DCT 80N165W DCT JUJXI DCT SPY DCT DRAPP DCT AMOND A342 NUZAN R220 NANAC Y810 OLDIV Y809 SUPOK
Aircraft A359/H-SDE2E3GHIJ3J4J5LM1ORWXY/LB1D1

Departure

Time 2026-04-22 20:51
Airport Helsinki Vantaa Airport (EFHK)

Arrival

Time 2026-04-23 10:49
Airport Narita International Airport (RJAA)
Time Latitude Longitude Altitude Speed Heading
2026-04-22 19:35 60.31421 24.95500 173 ft 0 kts 137°
2026-04-22 19:36 60.31421 24.95499 173 ft 0 kts 137°
2026-04-22 19:55 60.31421 24.95498 173 ft 0 kts 137°
2026-04-22 19:56 60.31422 24.95498 173 ft 0 kts 137°
2026-04-22 20:10 60.31422 24.95497 173 ft 0 kts 137°
2026-04-22 20:22 60.31423 24.95497 173 ft 0 kts 137°
2026-04-22 20:22 60.31423 24.95496 173 ft 0 kts 137°
2026-04-22 20:25 60.31431 24.95481 173 ft 4 kts 137°
2026-04-22 20:26 60.31450 24.95446 173 ft 2 kts 137°
2026-04-22 20:26 60.31469 24.95420 173 ft 4 kts 178°
2026-04-22 20:26 60.31490 24.95437 173 ft 4 kts 226°
2026-04-22 20:26 60.31503 24.95467 173 ft 1 kts 227°
2026-04-22 20:27 60.31505 24.95472 173 ft 0 kts 227°
2026-04-22 20:27 60.31506 24.95472 173 ft 0 kts 227°
2026-04-22 20:30 60.31474 24.95401 173 ft 8 kts 228°
2026-04-22 20:30 60.31451 24.95349 173 ft 4 kts 228°
2026-04-22 20:31 60.31448 24.95303 173 ft 5 kts 281°
2026-04-22 20:31 60.31460 24.95224 173 ft 7 kts 277°
2026-04-22 20:31 60.31434 24.95090 173 ft 10 kts 253°
2026-04-22 20:31 60.31445 24.94955 174 ft 11 kts 276°
2026-04-22 20:32 60.31399 24.94786 170 ft 19 kts 226°
2026-04-22 20:32 60.31302 24.94577 166 ft 22 kts 227°
2026-04-22 20:32 60.31195 24.94341 165 ft 23 kts 227°
2026-04-22 20:32 60.31086 24.94102 163 ft 18 kts 228°
2026-04-22 20:33 60.31047 24.94004 164 ft 8 kts 241°
2026-04-22 20:33 60.31040 24.93885 165 ft 9 kts 279°
2026-04-22 20:33 60.31047 24.93847 165 ft 0 kts 292°
2026-04-22 20:34 60.31047 24.93848 165 ft 0 kts 292°
2026-04-22 20:37 60.31046 24.93848 165 ft 0 kts 292°
2026-04-22 20:37 60.31047 24.93846 165 ft 3 kts 292°
2026-04-22 20:38 60.31076 24.93769 165 ft 8 kts 318°
2026-04-22 20:38 60.31142 24.93734 164 ft 14 kts
2026-04-22 20:38 60.31220 24.93835 165 ft 14 kts 44°
2026-04-22 20:38 60.31247 24.93895 164 ft 0 kts 48°
2026-04-22 20:39 60.31280 24.93969 165 ft 20 kts 48°
2026-04-22 20:39 60.31491 24.94435 168 ft 80 kts 47°
2026-04-22 20:39 60.32033 24.95633 179 ft 146 kts 47°
2026-04-22 20:40 60.32508 24.96675 180 ft 56 kts 47°
2026-04-22 20:40 60.32685 24.97062 177 ft 28 kts 47°
2026-04-22 20:40 60.32818 24.97356 172 ft 29 kts 47°
2026-04-22 20:40 60.32946 24.97648 170 ft 18 kts 56°
2026-04-22 20:41 60.32947 24.97871 166 ft 18 kts 125°
2026-04-22 20:41 60.32832 24.97928 162 ft 19 kts 211°
2026-04-22 20:41 60.32736 24.97738 163 ft 19 kts 228°
2026-04-22 20:41 60.32650 24.97545 165 ft 18 kts 228°
2026-04-22 20:42 60.32569 24.97362 168 ft 17 kts 228°
2026-04-22 20:42 60.32488 24.97186 170 ft 15 kts 227°
2026-04-22 20:42 60.32476 24.97160 171 ft 0 kts 227°
2026-04-22 20:43 60.32468 24.97144 172 ft 9 kts 227°
2026-04-22 20:43 60.32390 24.96974 170 ft 19 kts 227°
2026-04-22 20:43 60.32299 24.96772 172 ft 20 kts 228°
2026-04-22 20:43 60.32208 24.96569 174 ft 20 kts 228°
2026-04-22 20:44 60.32115 24.96361 174 ft 21 kts 228°
2026-04-22 20:44 60.32014 24.96138 175 ft 21 kts 226°
2026-04-22 20:44 60.31911 24.95919 176 ft 22 kts 226°
2026-04-22 20:44 60.31805 24.95690 176 ft 22 kts 228°
2026-04-22 20:45 60.31699 24.95457 177 ft 23 kts 227°
2026-04-22 20:45 60.31589 24.95213 176 ft 24 kts 227°
2026-04-22 20:45 60.31474 24.94956 174 ft 26 kts 228°
2026-04-22 20:45 60.31347 24.94677 168 ft 28 kts 227°
2026-04-22 20:46 60.31113 24.94162 163 ft 10 kts 227°
2026-04-22 20:46 60.31065 24.94056 164 ft 10 kts 228°
2026-04-22 20:46 60.31039 24.93919 165 ft 11 kts 268°
2026-04-22 20:47 60.31047 24.93839 165 ft 0 kts 290°
2026-04-22 20:48 60.31047 24.93840 165 ft 0 kts 290°
2026-04-22 20:49 60.31049 24.93831 165 ft 5 kts 293°
2026-04-22 20:49 60.31115 24.93736 164 ft 17 kts 346°
2026-04-22 20:50 60.31220 24.93827 165 ft 16 kts 44°
2026-04-22 20:50 60.31327 24.94069 167 ft 46 kts 47°
2026-04-22 20:50 60.31725 24.94951 178 ft 121 kts 47°
2026-04-22 20:50 60.32435 24.96552 301 ft 172 kts 45°
2026-04-22 20:51 60.33154 24.98188 1210 ft 151 kts 41°
2026-04-22 20:51 60.33900 24.99794 1460 ft 165 kts 41°
2026-04-22 20:51 60.34731 25.01565 1642 ft 183 kts 42°
2026-04-22 20:51 60.35658 25.03579 1842 ft 203 kts 42°
2026-04-22 20:52 60.36653 25.05761 2037 ft 225 kts 42°
2026-04-22 20:52 60.37749 25.08180 2365 ft 238 kts 42°
2026-04-22 20:52 60.38875 25.10653 2997 ft 238 kts 39°
2026-04-22 20:52 60.40224 25.12473 3638 ft 231 kts 14°
2026-04-22 20:53 60.41778 25.12934 4346 ft 224 kts
2026-04-22 20:53 60.43341 25.12988 5006 ft 225 kts 359°
2026-04-22 20:53 60.44915 25.13011 5617 ft 227 kts 360°
2026-04-22 20:53 60.46502 25.13049 6240 ft 229 kts
2026-04-22 20:54 60.48098 25.13100 6846 ft 230 kts
2026-04-22 20:54 60.49711 25.13103 7433 ft 233 kts 357°
2026-04-22 20:54 60.51307 25.12438 8006 ft 237 kts 342°
2026-04-22 20:54 60.52826 25.11089 8599 ft 240 kts 338°
2026-04-22 20:55 60.54324 25.09624 9138 ft 243 kts 338°
2026-04-22 20:55 60.55857 25.08125 9713 ft 245 kts 338°
2026-04-22 20:55 60.57417 25.06607 10176 ft 254 kts 337°
2026-04-22 20:55 60.59056 25.05018 10416 ft 268 kts 337°
2026-04-22 20:56 60.60786 25.03338 10640 ft 282 kts 337°
2026-04-22 20:56 60.62603 25.01571 10876 ft 296 kts 337°
2026-04-22 20:56 60.64505 24.99721 11096 ft 309 kts 336°
2026-04-22 20:56 60.66477 24.97801 11316 ft 320 kts 336°
2026-04-22 20:57 60.68512 24.95816 11676 ft 326 kts 336°
2026-04-22 20:57 60.70565 24.93809 12177 ft 328 kts 336°
2026-04-22 20:57 60.72630 24.91789 12711 ft 329 kts 336°
2026-04-22 20:57 60.74693 24.89768 13277 ft 328 kts 336°
2026-04-22 20:58 60.76745 24.87752 13803 ft 327 kts 337°
2026-04-22 20:58 60.78799 24.85742 14308 ft 328 kts 337°
2026-04-22 20:58 60.80878 24.84005 14798 ft 327 kts 344°
2026-04-22 20:58 60.83109 24.83109 15279 ft 326 kts 355°
2026-04-22 20:59 60.85376 24.83124 15767 ft 327 kts
2026-04-22 20:59 60.87648 24.83503 16219 ft 327 kts
2026-04-22 20:59 60.89915 24.84060 16660 ft 328 kts
2026-04-22 20:59 60.92183 24.84675 17058 ft 329 kts
2026-04-22 21:00 60.94450 24.85288 17550 ft 328 kts
2026-04-22 21:00 60.96713 24.85884 18000 ft 328 kts
2026-04-22 21:00 60.98978 24.86457 18399 ft 328 kts
2026-04-22 21:00 61.01254 24.87010 18737 ft 329 kts
2026-04-22 21:01 61.03544 24.87562 19054 ft 332 kts
2026-04-22 21:01 61.05813 24.88099 19390 ft 333 kts
2026-04-22 21:01 61.08118 24.88641 19721 ft 334 kts
2026-04-22 21:01 61.10434 24.89188 20020 ft 336 kts
2026-04-22 21:02 61.12761 24.89741 20332 ft 337 kts
2026-04-22 21:02 61.15100 24.90301 20646 ft 338 kts
2026-04-22 21:02 61.17447 24.90864 20965 ft 340 kts
2026-04-22 21:02 61.19797 24.91430 21266 ft 341 kts
2026-04-22 21:03 61.22156 24.91996 21636 ft 339 kts
2026-04-22 21:03 61.24499 24.92566 21992 ft 339 kts
2026-04-22 21:03 61.26850 24.93136 22268 ft 341 kts
2026-04-22 21:03 61.29209 24.93709 22550 ft 342 kts
2026-04-22 21:04 61.31579 24.94284 22838 ft 343 kts
2026-04-22 21:04 61.33955 24.94862 23095 ft 345 kts
2026-04-22 21:04 61.36345 24.95443 23352 ft 346 kts
2026-04-22 21:04 61.38741 24.96024 23673 ft 347 kts
2026-04-22 21:05 61.41139 24.96607 23927 ft 348 kts
2026-04-22 21:05 61.43550 24.97198 24195 ft 349 kts
2026-04-22 21:05 61.45941 24.97784 24425 ft 351 kts
2026-04-22 21:05 61.48370 24.98381 24658 ft 353 kts
2026-04-22 21:06 61.50820 24.98982 24871 ft 356 kts
2026-04-22 21:06 61.53284 24.99588 25107 ft 357 kts
2026-04-22 21:06 61.55754 25.00195 25333 ft 359 kts
2026-04-22 21:06 61.58239 25.00804 25583 ft 360 kts
2026-04-22 21:07 61.60741 25.01309 25828 ft 361 kts
2026-04-22 21:07 61.63258 25.01427 26036 ft 363 kts
2026-04-22 21:07 61.65788 25.01444 26275 ft 364 kts 360°
2026-04-22 21:07 61.68327 25.01409 26502 ft 366 kts 359°
2026-04-22 21:08 61.70879 25.01344 26708 ft 368 kts 359°
2026-04-22 21:08 61.73448 25.01265 26905 ft 370 kts 359°
2026-04-22 21:08 61.76036 25.01184 27129 ft 372 kts 359°
2026-04-22 21:08 61.78623 25.01106 27359 ft 373 kts 359°
2026-04-22 21:09 61.81222 25.01032 27593 ft 374 kts 359°
2026-04-22 21:09 61.83832 25.00960 27774 ft 376 kts 359°
2026-04-22 21:09 61.86426 25.00888 27978 ft 378 kts 359°
2026-04-22 21:09 61.89061 25.00817 28198 ft 379 kts 359°
2026-04-22 21:10 61.91708 25.00745 28400 ft 381 kts 359°
2026-04-22 21:10 61.94371 25.00674 28608 ft 382 kts 359°
2026-04-22 21:10 61.97043 25.00602 28761 ft 385 kts 359°
2026-04-22 21:10 61.99726 25.00530 28982 ft 386 kts 359°
2026-04-22 21:11 62.02416 25.00457 29188 ft 386 kts 359°
2026-04-22 21:11 62.05107 25.00384 29445 ft 386 kts 359°
2026-04-22 21:11 62.07768 25.00312 29633 ft 388 kts 359°
2026-04-22 21:11 62.10476 25.00239 29772 ft 390 kts 359°
2026-04-22 21:12 62.13194 25.00166 30014 ft 390 kts 359°
2026-04-22 21:12 62.15903 25.00093 30302 ft 389 kts 359°
2026-04-22 21:12 62.18602 25.00019 30568 ft 388 kts 359°
2026-04-22 21:12 62.21311 24.99944 30782 ft 389 kts 359°
2026-04-22 21:13 62.24016 24.99869 31027 ft 389 kts 359°
2026-04-22 21:13 62.26719 24.99794 31280 ft 388 kts 359°
2026-04-22 21:13 62.29424 24.99717 31493 ft 389 kts 359°
2026-04-22 21:13 62.32129 24.99641 31743 ft 389 kts 359°
2026-04-22 21:14 62.34837 24.99567 32005 ft 388 kts 359°
2026-04-22 21:14 62.37539 24.99494 32197 ft 389 kts 359°
2026-04-22 21:14 62.40245 24.99419 32402 ft 389 kts 359°
2026-04-22 21:14 62.42951 24.99344 32633 ft 388 kts 358°
2026-04-22 21:15 62.45655 24.99269 32859 ft 388 kts 358°
2026-04-22 21:15 62.48324 24.99195 33024 ft 389 kts 358°
2026-04-22 21:15 62.51029 24.99118 33216 ft 389 kts 358°
2026-04-22 21:15 62.53730 24.99040 33427 ft 388 kts 358°
2026-04-22 21:16 62.56433 24.98962 33635 ft 388 kts 358°
2026-04-22 21:16 62.59134 24.98889 33794 ft 389 kts 358°
2026-04-22 21:16 62.61844 24.98816 33982 ft 389 kts 358°
2026-04-22 21:16 62.64546 24.98742 34187 ft 388 kts 358°
2026-04-22 21:17 62.67247 24.98666 34343 ft 389 kts 358°
2026-04-22 21:17 62.69964 24.98589 34513 ft 389 kts 358°
2026-04-22 21:17 62.72681 24.98511 34654 ft 390 kts 358°
2026-04-22 21:17 62.75397 24.98433 34786 ft 391 kts 358°
2026-04-22 21:18 62.78124 24.98356 34941 ft 391 kts 358°
2026-04-22 21:18 62.80845 24.98279 35111 ft 391 kts 358°
2026-04-22 21:18 62.83571 24.98201 35245 ft 392 kts 358°
2026-04-22 21:18 62.86300 24.98123 35345 ft 393 kts 358°
2026-04-22 21:19 62.89038 24.98044 35475 ft 393 kts 358°
2026-04-22 21:19 62.91736 24.97964 35614 ft 393 kts 358°
2026-04-22 21:19 62.94472 24.97885 35743 ft 394 kts 358°
2026-04-22 21:19 62.97214 24.97807 35870 ft 394 kts 358°
2026-04-22 21:20 63.02740 24.97648 35914 ft 400 kts 358°
2026-04-22 21:20 63.08318 24.97488 35925 ft 401 kts 358°
2026-04-22 21:21 63.13895 24.97325 35929 ft 401 kts 358°
2026-04-22 21:21 63.19475 24.97160 35935 ft 401 kts 358°
2026-04-22 21:22 63.25050 24.96993 35938 ft 401 kts 358°
2026-04-22 21:22 63.30628 24.96832 35943 ft 401 kts 358°
2026-04-22 21:23 63.36207 24.96670 35947 ft 401 kts 358°
2026-04-22 21:23 63.40847 24.96533 35952 ft 401 kts 358°
2026-04-22 21:24 63.46427 24.96368 35954 ft 401 kts 358°
2026-04-22 21:24 63.51968 24.96204 35962 ft 401 kts 358°
2026-04-22 21:25 63.57558 24.96035 35962 ft 401 kts 358°
2026-04-22 21:25 63.63135 24.95867 35967 ft 401 kts 358°
2026-04-22 21:26 63.68719 24.95697 35971 ft 401 kts 358°
2026-04-22 21:26 63.74299 24.95526 35971 ft 401 kts 358°
2026-04-22 21:27 63.79854 24.95357 35981 ft 401 kts 358°
2026-04-22 21:27 63.85429 24.95186 35980 ft 401 kts 358°
2026-04-22 21:28 63.91010 24.95015 35979 ft 401 kts 358°
2026-04-22 21:28 63.96604 24.94843 35980 ft 401 kts 358°
2026-04-22 21:29 64.02154 24.94671 35980 ft 401 kts 358°
2026-04-22 21:29 64.07731 24.94496 35981 ft 401 kts 358°
2026-04-22 21:30 64.13306 24.94324 35980 ft 401 kts 358°
2026-04-22 21:30 64.18881 24.94146 35980 ft 401 kts 358°
2026-04-22 21:31 64.24462 24.93970 35980 ft 401 kts 358°
2026-04-22 21:31 64.30038 24.93796 35981 ft 400 kts 358°
2026-04-22 21:32 64.35616 24.93621 35980 ft 401 kts 358°
2026-04-22 21:32 64.41188 24.93443 35978 ft 401 kts 358°
2026-04-22 21:33 64.46728 24.93273 35971 ft 400 kts 358°
2026-04-22 21:33 64.52314 24.93095 35971 ft 401 kts 358°
2026-04-22 21:34 64.57890 24.92911 35972 ft 400 kts 358°
2026-04-22 21:34 64.63469 24.92725 35971 ft 401 kts 358°
2026-04-22 21:35 64.69049 24.92542 35971 ft 400 kts 358°
2026-04-22 21:35 64.74620 24.92359 35971 ft 401 kts 358°
2026-04-22 21:36 64.80175 24.92177 35971 ft 401 kts 358°
2026-04-22 21:36 64.85759 24.91999 35971 ft 401 kts 358°
2026-04-22 21:37 64.91347 24.91810 35971 ft 402 kts 358°
2026-04-22 21:37 64.96938 24.91619 35972 ft 401 kts 358°
2026-04-22 21:38 65.02522 24.91434 35971 ft 401 kts 358°
2026-04-22 21:38 65.08072 24.91251 35971 ft 401 kts 358°
2026-04-22 21:39 65.13661 24.91064 35971 ft 401 kts 358°
2026-04-22 21:39 65.19244 24.90876 35971 ft 401 kts 358°
2026-04-22 21:40 65.24842 24.90686 35971 ft 401 kts 358°
2026-04-22 21:40 65.30426 24.90496 35980 ft 401 kts 358°
2026-04-22 21:41 65.36011 24.90306 35980 ft 402 kts 358°
2026-04-22 21:41 65.41609 24.90113 35980 ft 402 kts 358°
2026-04-22 21:42 65.47208 24.89918 35994 ft 402 kts 358°
2026-04-22 21:42 65.52770 24.89726 35985 ft 402 kts 358°
2026-04-22 21:43 65.58362 24.89532 35994 ft 402 kts 358°
2026-04-22 21:43 65.63962 24.89335 35992 ft 402 kts 358°
2026-04-22 21:44 65.69559 24.89137 35987 ft 402 kts 358°
2026-04-22 21:44 65.75158 24.88943 35985 ft 402 kts 359°
2026-04-22 21:45 65.80757 24.88748 35985 ft 402 kts 358°
2026-04-22 21:45 65.86349 24.88547 35985 ft 402 kts 358°
2026-04-22 21:46 65.91943 24.88346 35993 ft 402 kts 358°
2026-04-22 21:46 65.97537 24.88144 35989 ft 402 kts 358°
2026-04-22 21:47 66.03103 24.87945 35990 ft 403 kts 359°
2026-04-22 21:47 66.08720 24.87744 35986 ft 403 kts 358°
2026-04-22 21:48 66.14331 24.87543 35981 ft 404 kts 359°
2026-04-22 21:48 66.19952 24.87346 35980 ft 403 kts 358°
2026-04-22 21:49 66.25575 24.87133 35980 ft 403 kts 358°
2026-04-22 21:49 66.31185 24.86922 35981 ft 404 kts 358°
2026-04-22 21:50 66.36810 24.86711 35971 ft 404 kts 358°
2026-04-22 21:50 66.42398 24.86504 35971 ft 404 kts 358°
2026-04-22 21:51 66.48025 24.86295 35971 ft 404 kts 358°
2026-04-22 21:52 66.56469 24.85981 35971 ft 404 kts 359°
2026-04-22 21:52 66.62102 24.85762 35972 ft 404 kts 358°
2026-04-22 21:53 66.67697 24.85550 35972 ft 404 kts 358°
2026-04-22 21:53 66.73329 24.85339 35971 ft 404 kts 358°
2026-04-22 21:54 66.78969 24.85121 35970 ft 405 kts 358°
2026-04-22 21:54 66.84611 24.84908 35975 ft 406 kts 358°
2026-04-22 21:55 66.90260 24.84690 35980 ft 405 kts 358°
2026-04-22 21:55 66.95869 24.84472 35980 ft 405 kts 358°
2026-04-22 21:56 67.01507 24.84254 35980 ft 406 kts 358°
2026-04-22 21:56 67.07153 24.84032 35981 ft 406 kts 358°
2026-04-22 21:57 67.12801 24.83810 35981 ft 406 kts 358°
2026-04-22 21:57 67.18455 24.83590 35981 ft 406 kts 358°
2026-04-22 21:58 67.24110 24.83362 35979 ft 407 kts 358°
2026-04-22 21:58 67.29776 24.83135 35973 ft 406 kts 358°
2026-04-22 21:59 67.35398 24.82909 35971 ft 407 kts 358°
2026-04-22 21:59 67.41057 24.82678 35971 ft 407 kts 358°
2026-04-22 22:00 67.46727 24.82454 35962 ft 407 kts 358°
2026-04-22 22:00 67.52394 24.82225 35963 ft 407 kts 358°
2026-04-22 22:01 67.58029 24.81994 35970 ft 407 kts 358°
2026-04-22 22:01 67.63689 24.81757 35971 ft 406 kts 358°
2026-04-22 22:02 67.69349 24.81530 35960 ft 407 kts 358°
2026-04-22 22:02 67.75014 24.81295 35962 ft 407 kts 358°
2026-04-22 22:03 67.80687 24.81057 35946 ft 407 kts 358°
2026-04-22 22:03 67.86348 24.80817 35943 ft 407 kts 358°
2026-04-22 22:04 67.92018 24.80579 35943 ft 407 kts 358°
2026-04-22 22:04 67.97645 24.80345 35943 ft 407 kts 358°
2026-04-22 22:05 68.03313 24.80102 35953 ft 408 kts 358°
2026-04-22 22:05 68.08991 24.79857 35952 ft 409 kts 358°
2026-04-22 22:06 68.14684 24.79612 35952 ft 409 kts 358°
2026-04-22 22:06 68.20369 24.79370 35952 ft 409 kts 358°
2026-04-22 22:07 68.26053 24.79123 35960 ft 409 kts 358°
2026-04-22 22:07 68.31738 24.78875 35961 ft 408 kts 358°
2026-04-22 22:08 68.37426 24.78623 35962 ft 409 kts 358°
2026-04-22 22:08 68.43090 24.78380 35962 ft 409 kts 358°
2026-04-22 22:09 68.48793 24.78139 35963 ft 409 kts 358°
2026-04-22 22:09 68.54493 24.77882 35962 ft 410 kts 358°
2026-04-22 22:10 68.60194 24.77621 35963 ft 409 kts 358°
2026-04-22 22:10 68.65893 24.77364 35963 ft 410 kts 358°
2026-04-22 22:11 68.71605 24.77105 35962 ft 410 kts 358°
2026-04-22 22:11 68.77315 24.76849 35962 ft 410 kts 358°
2026-04-22 22:12 68.83023 24.76594 35962 ft 410 kts 358°
2026-04-22 22:12 68.88694 24.76328 35962 ft 410 kts 358°
2026-04-22 22:13 68.94394 24.76058 35961 ft 410 kts 358°
2026-04-22 22:13 69.00103 24.75799 35961 ft 410 kts 358°
2026-04-22 22:14 69.04886 24.75583 35962 ft 410 kts 358°
2026-04-22 22:14 69.10556 24.75316 35962 ft 411 kts 358°
2026-04-22 22:15 69.16284 24.75046 35962 ft 411 kts 358°
2026-04-22 22:15 69.22008 24.74785 35961 ft 410 kts 358°
2026-04-22 22:16 69.27720 24.74513 35964 ft 411 kts 358°
2026-04-22 22:16 69.33437 24.74235 35962 ft 410 kts 358°
2026-04-22 22:17 69.39146 24.73954 35961 ft 410 kts 357°
2026-04-22 22:17 69.44830 24.73681 35962 ft 411 kts 357°
2026-04-22 22:18 69.50543 24.73407 35961 ft 411 kts 357°
2026-04-22 22:18 69.56262 24.73129 35962 ft 411 kts 357°
2026-04-22 22:19 69.61981 24.72849 35961 ft 411 kts 357°
2026-04-22 22:19 69.67698 24.72570 35962 ft 411 kts 357°
2026-04-22 22:20 69.73418 24.72283 35953 ft 411 kts 357°
2026-04-22 22:20 69.79098 24.71999 35954 ft 411 kts 357°
2026-04-22 22:21 69.84817 24.71709 35946 ft 410 kts 357°
2026-04-22 22:21 69.90522 24.71425 35943 ft 410 kts 357°
2026-04-22 22:22 69.96245 24.71136 35941 ft 412 kts 357°
2026-04-22 22:22 70.01982 24.70845 35944 ft 413 kts 357°
2026-04-22 22:23 70.07730 24.70557 35945 ft 413 kts 357°
2026-04-22 22:23 70.13486 24.70253 35944 ft 414 kts 357°
2026-04-22 22:24 70.19243 24.69955 35947 ft 414 kts 357°
2026-04-22 22:24 70.24953 24.69661 35945 ft 413 kts 357°
2026-04-22 22:25 70.30701 24.69363 35944 ft 413 kts 357°
2026-04-22 22:25 70.36447 24.69058 35944 ft 413 kts 357°
2026-04-22 22:26 70.42201 24.68753 35944 ft 413 kts 357°
2026-04-22 22:26 70.47951 24.68447 35944 ft 413 kts 357°
2026-04-22 22:27 70.53702 24.68140 35943 ft 413 kts 357°
2026-04-22 22:27 70.59454 24.67833 35943 ft 414 kts 356°
2026-04-22 22:28 70.65214 24.67515 35938 ft 414 kts 356°
2026-04-22 22:28 70.70929 24.67205 35936 ft 413 kts 356°
2026-04-22 22:29 70.76685 24.66892 35936 ft 414 kts 356°
2026-04-22 22:29 70.82454 24.66575 35932 ft 415 kts 356°
2026-04-22 22:30 70.88234 24.66264 35922 ft 415 kts 356°
2026-04-22 22:30 70.94001 24.65941 35930 ft 415 kts 356°
2026-04-22 22:31 70.99780 24.65614 35925 ft 415 kts 356°
2026-04-22 22:31 71.05520 24.65298 35924 ft 414 kts 356°
2026-04-22 22:32 71.11285 24.64969 35931 ft 415 kts 356°
2026-04-22 22:32 71.17062 24.64633 35936 ft 415 kts 356°
2026-04-22 22:33 71.22836 24.64293 35936 ft 416 kts 356°
2026-04-22 22:33 71.28626 24.63963 35932 ft 416 kts 356°
2026-04-22 22:34 71.34414 24.63251 35937 ft 415 kts 354°
2026-04-22 22:34 71.40167 24.61772 35937 ft 415 kts 353°
2026-04-22 22:35 71.45916 24.60263 35925 ft 415 kts 353°
2026-04-22 22:35 71.51678 24.58866 35915 ft 415 kts 353°
2026-04-22 22:36 71.57409 24.57525 35915 ft 415 kts 353°
2026-04-22 22:36 71.63178 24.56179 35916 ft 415 kts 353°
2026-04-22 22:37 71.68941 24.54829 35915 ft 415 kts 353°
2026-04-22 22:37 71.74705 24.53475 35915 ft 415 kts 353°
2026-04-22 22:38 71.80473 24.52104 35915 ft 415 kts 353°
2026-04-22 22:38 71.86205 24.50720 35915 ft 415 kts 353°
2026-04-22 22:39 71.91973 24.49326 35915 ft 415 kts 353°
2026-04-22 22:39 71.97737 24.47929 35915 ft 415 kts 353°
2026-04-22 22:40 72.03511 24.46520 35916 ft 416 kts 353°
2026-04-22 22:40 72.09292 24.45097 35916 ft 417 kts 353°
2026-04-22 22:41 72.15047 24.43674 35915 ft 417 kts 353°
2026-04-22 22:41 72.20838 24.42233 35915 ft 417 kts 353°
2026-04-22 22:42 72.26629 24.40781 35915 ft 418 kts 353°
2026-04-22 22:42 72.32422 24.39322 35915 ft 417 kts 353°
2026-04-22 22:43 72.38214 24.37854 35916 ft 418 kts 353°
2026-04-22 22:43 72.44021 24.36366 35915 ft 419 kts 353°
2026-04-22 22:44 72.49834 24.34875 35916 ft 419 kts 353°
2026-04-22 22:44 72.55659 24.33374 35915 ft 420 kts 353°
2026-04-22 22:45 72.61492 24.31857 35916 ft 420 kts 353°
2026-04-22 22:45 72.67284 24.30337 35915 ft 421 kts 353°
2026-04-22 22:46 72.73122 24.28797 35915 ft 421 kts 353°
2026-04-22 22:46 72.78973 24.27248 35915 ft 422 kts 353°
2026-04-22 22:47 72.84845 24.25678 35915 ft 423 kts 352°
2026-04-22 22:47 72.90721 24.24088 35916 ft 424 kts 352°
2026-04-22 22:48 72.96605 24.22497 35915 ft 424 kts 352°
2026-04-22 22:48 73.02468 24.20901 35915 ft 425 kts 352°
2026-04-22 22:49 73.08378 24.19276 35915 ft 427 kts 352°
2026-04-22 22:49 73.14298 24.17639 35908 ft 427 kts 352°
2026-04-22 22:50 73.20242 24.15983 35906 ft 428 kts 352°
2026-04-22 22:50 73.26185 24.14313 35906 ft 429 kts 352°
2026-04-22 22:51 73.32136 24.12633 35906 ft 429 kts 352°
2026-04-22 22:51 73.38100 24.10945 35906 ft 430 kts 352°
2026-04-22 22:52 73.44041 24.09248 35906 ft 432 kts 352°
2026-04-22 22:52 73.50034 24.07524 35906 ft 432 kts 352°
2026-04-22 22:53 73.56029 24.05781 35906 ft 432 kts 352°
2026-04-22 22:53 73.62034 24.04029 35907 ft 433 kts 352°
2026-04-22 22:54 73.68058 24.02256 35906 ft 434 kts 352°
2026-04-22 22:54 73.74070 24.00477 35897 ft 433 kts 352°
2026-04-22 22:55 73.80081 23.98677 35898 ft 434 kts 352°
2026-04-22 22:55 73.89116 23.95951 35897 ft 434 kts 352°
2026-04-22 22:56 73.95144 23.94127 35897 ft 435 kts 352°
2026-04-22 22:56 74.01137 23.92289 35897 ft 434 kts 352°
2026-04-22 22:57 74.07159 23.90425 35897 ft 434 kts 352°
2026-04-22 22:57 74.13179 23.88575 35896 ft 434 kts 352°
2026-04-22 22:58 74.19210 23.86674 35887 ft 434 kts 352°
2026-04-22 22:58 74.25234 23.84768 35888 ft 434 kts 352°
2026-04-22 22:59 74.31263 23.82851 35887 ft 434 kts 352°
2026-04-22 22:59 74.37293 23.80926 35887 ft 435 kts 352°
2026-04-22 23:00 74.43334 23.78965 35888 ft 436 kts 351°
2026-04-22 23:00 74.49350 23.77013 35880 ft 437 kts 351°
2026-04-22 23:01 74.54415 23.75356 35880 ft 436 kts 351°
2026-04-22 23:01 74.60483 23.73356 35881 ft 437 kts 351°
2026-04-22 23:02 74.66518 23.71349 35880 ft 438 kts 351°
2026-04-22 23:02 74.72595 23.69310 35880 ft 439 kts 351°
2026-04-22 23:03 74.78684 23.67255 35860 ft 440 kts 351°
2026-04-22 23:03 74.84795 23.65182 35896 ft 441 kts 351°
2026-04-22 23:04 74.90916 23.63082 35906 ft 441 kts 351°
2026-04-22 23:04 74.97040 23.60962 35906 ft 443 kts 351°
2026-04-22 23:05 75.03189 23.58819 35906 ft 444 kts 351°
2026-04-22 23:05 75.09315 23.56667 35898 ft 445 kts 351°
2026-04-22 23:06 75.15481 23.54484 35897 ft 445 kts 351°
2026-04-22 23:06 75.21659 23.52278 35897 ft 446 kts 351°
2026-04-22 23:07 75.27847 23.50047 35897 ft 447 kts 351°
2026-04-22 23:07 75.34042 23.47801 35887 ft 447 kts 351°
2026-04-22 23:08 75.40237 23.45535 35889 ft 448 kts 351°
2026-04-22 23:08 75.46455 23.43237 35887 ft 449 kts 351°
2026-04-22 23:09 75.52640 23.40927 35888 ft 449 kts 351°
2026-04-22 23:09 75.58863 23.38600 35880 ft 449 kts 351°
2026-04-22 23:10 75.65090 23.36243 35882 ft 449 kts 351°
2026-04-22 23:10 75.71322 23.33864 35881 ft 449 kts 351°
2026-04-22 23:11 75.77547 23.31468 35863 ft 449 kts 351°
2026-04-22 23:11 75.83783 23.29049 35872 ft 450 kts 351°
2026-04-22 23:12 75.90032 23.26601 35867 ft 451 kts 351°
2026-04-22 23:12 75.96225 23.24153 35869 ft 451 kts 351°
2026-04-22 23:13 76.02485 23.21662 35855 ft 451 kts 350°
2026-04-22 23:13 76.08767 23.19128 35859 ft 455 kts 351°
2026-04-22 23:14 76.15085 23.16569 35867 ft 456 kts 351°
2026-04-22 23:14 76.21404 23.13985 35861 ft 456 kts 350°
2026-04-22 23:15 76.27687 23.11387 35851 ft 456 kts 350°
2026-04-22 23:15 76.34010 23.08746 35850 ft 457 kts 350°
2026-04-22 23:16 76.40341 23.06088 35856 ft 457 kts 350°
2026-04-22 23:16 76.46674 23.03405 35850 ft 457 kts 350°
2026-04-22 23:17 76.53011 23.00687 35843 ft 457 kts 350°
2026-04-22 23:17 76.59351 22.97940 35844 ft 457 kts 350°
2026-04-22 23:18 76.65644 22.95188 35839 ft 458 kts 350°
2026-04-22 23:18 76.71989 22.92393 35842 ft 458 kts 350°
2026-04-22 23:19 76.78333 22.89577 35839 ft 458 kts 350°
2026-04-22 23:19 76.84679 22.86740 35832 ft 459 kts 350°
2026-04-22 23:20 76.91031 22.83856 35833 ft 459 kts 350°
2026-04-22 23:20 76.97397 22.80936 35831 ft 460 kts 350°
2026-04-22 23:21 77.03766 22.77989 35833 ft 460 kts 350°
2026-04-22 23:21 77.10149 22.75008 35834 ft 461 kts 350°
2026-04-22 23:22 77.16528 22.72000 35823 ft 461 kts 350°
2026-04-22 23:22 77.22910 22.68959 35823 ft 461 kts 350°
2026-04-22 23:23 77.29305 22.65886 35824 ft 462 kts 350°
2026-04-22 23:23 77.35652 22.62805 35823 ft 462 kts 351°
2026-04-22 23:24 77.42058 22.59666 35823 ft 463 kts 350°
2026-04-22 23:24 77.48470 22.56502 35823 ft 463 kts 350°
2026-04-22 23:25 77.54888 22.53288 35824 ft 464 kts 350°
2026-04-22 23:25 77.61307 22.50043 35823 ft 464 kts 350°
2026-04-22 23:26 77.67735 22.46758 35822 ft 464 kts 350°
2026-04-22 23:26 77.74174 22.43436 35822 ft 465 kts 350°
2026-04-22 23:27 77.80574 22.40089 35817 ft 465 kts 350°
2026-04-22 23:27 77.87010 22.36695 35813 ft 466 kts 350°
2026-04-22 23:28 77.93461 22.33254 35812 ft 466 kts 350°
2026-04-22 23:28 77.99918 22.29782 35813 ft 466 kts 350°
2026-04-22 23:29 78.06381 22.26272 35813 ft 467 kts 350°
2026-04-22 23:29 78.12846 22.22705 35815 ft 467 kts 350°
2026-04-22 23:30 78.19311 22.19117 35814 ft 467 kts 350°
2026-04-22 23:30 78.25777 22.15482 35814 ft 468 kts 350°
2026-04-22 23:31 78.32206 22.11846 35817 ft 468 kts 350°
2026-04-22 23:31 78.38684 22.08121 35811 ft 467 kts 350°
2026-04-22 23:32 78.45153 22.04362 35815 ft 468 kts 350°
2026-04-22 23:32 78.51582 22.00590 35813 ft 468 kts 350°
2026-04-22 23:33 78.58058 21.96744 35814 ft 468 kts 350°
2026-04-22 23:33 78.64542 21.92852 35813 ft 469 kts 350°
2026-04-22 23:34 78.71023 21.88925 35814 ft 469 kts 350°
2026-04-22 23:34 78.77516 21.84936 35812 ft 469 kts 350°
2026-04-22 23:35 78.84009 21.80897 35813 ft 470 kts 350°
2026-04-22 23:35 78.90510 21.76805 35813 ft 471 kts 350°
2026-04-22 23:36 78.97028 21.72659 35814 ft 472 kts 350°
2026-04-22 23:36 79.03547 21.68465 35813 ft 473 kts 350°
2026-04-22 23:37 79.10083 21.64208 35814 ft 473 kts 350°
2026-04-22 23:37 79.16583 21.59925 35813 ft 474 kts 350°
2026-04-22 23:38 79.23134 21.55553 35813 ft 475 kts 350°
2026-04-22 23:38 79.29692 21.51133 35814 ft 475 kts 350°
2026-04-22 23:39 79.36249 21.46658 35814 ft 475 kts 350°
2026-04-22 23:39 79.42806 21.42125 35813 ft 475 kts 350°
2026-04-22 23:40 79.49375 21.37514 35814 ft 475 kts 350°
2026-04-22 23:40 79.55942 21.32863 35813 ft 476 kts 350°
2026-04-22 23:41 79.62464 21.28176 35813 ft 476 kts 350°
2026-04-22 23:41 79.69033 21.23404 35814 ft 476 kts 350°
2026-04-22 23:42 79.75607 21.18561 35814 ft 476 kts 350°
2026-04-22 23:42 79.82167 21.13664 35814 ft 475 kts 350°
2026-04-22 23:43 79.88729 21.08706 35814 ft 475 kts 350°
2026-04-22 23:43 79.95289 21.03682 35814 ft 475 kts 350°
2026-04-22 23:44 80.01852 20.98674 35812 ft 476 kts 351°
2026-04-22 23:44 80.08491 20.95667 35823 ft 481 kts 354°
2026-04-22 23:45 80.15130 20.93517 35823 ft 482 kts 354°
2026-04-22 23:45 80.21826 20.91059 35821 ft 482 kts 354°
2026-04-22 23:46 80.28508 20.88323 35823 ft 481 kts 353°
2026-04-22 23:46 80.35185 20.85453 35822 ft 481 kts 353°
2026-04-22 23:47 80.41874 20.82526 35823 ft 481 kts 353°
2026-04-22 23:47 80.47428 20.80081 35807 ft 481 kts 353°
2026-04-22 23:48 80.54115 20.77118 35793 ft 482 kts 353°
2026-04-22 23:48 80.60803 20.74107 35797 ft 482 kts 353°
2026-04-22 23:49 80.67502 20.71030 35802 ft 482 kts 353°
2026-04-22 23:49 80.74156 20.67950 35803 ft 483 kts 353°
2026-04-22 23:50 80.80859 20.64809 35806 ft 483 kts 353°
2026-04-22 23:50 80.87576 20.61589 35803 ft 483 kts 353°
2026-04-22 23:51 80.94246 20.58371 35803 ft 484 kts 353°
2026-04-22 23:51 81.00961 20.55080 35803 ft 484 kts 353°
2026-04-22 23:52 81.07684 20.51727 35803 ft 485 kts 353°
2026-04-22 23:52 81.14419 20.48317 35803 ft 485 kts 353°
2026-04-22 23:53 81.21159 20.44853 35803 ft 486 kts 353°
2026-04-22 23:53 81.27913 20.41317 35814 ft 487 kts 353°
2026-04-22 23:54 81.34668 20.37746 35814 ft 487 kts 353°
2026-04-22 23:54 81.41387 20.34130 35814 ft 488 kts 353°
2026-04-22 23:55 81.48161 20.30435 35814 ft 488 kts 353°
2026-04-22 23:55 81.54936 20.26679 35812 ft 488 kts 353°
2026-04-22 23:56 81.61710 20.22859 35814 ft 489 kts 353°
2026-04-22 23:56 81.68498 20.18968 35813 ft 489 kts 353°
2026-04-22 23:57 81.75282 20.15016 35814 ft 489 kts 353°
2026-04-22 23:57 81.82082 20.10998 35814 ft 490 kts 353°
2026-04-22 23:58 81.88889 20.06889 35813 ft 490 kts 353°
2026-04-22 23:58 81.95647 20.02749 35813 ft 490 kts 353°
2026-04-22 23:59 82.02448 19.98585 35813 ft 490 kts 354°
2026-04-22 23:59 82.09263 19.95403 35813 ft 491 kts 355°
2026-04-23 00:00 82.19498 19.91001 35813 ft 491 kts 354°
2026-04-23 00:01 82.26318 19.87843 35813 ft 491 kts 354°
2026-04-23 00:01 82.33139 19.84542 35823 ft 491 kts 354°
2026-04-23 00:02 82.39926 19.81175 35823 ft 492 kts 354°
2026-04-23 00:02 82.46751 19.77760 35823 ft 492 kts 354°
2026-04-23 00:03 82.53579 19.74274 35822 ft 492 kts 355°
2026-04-23 00:03 82.60441 19.70701 35841 ft 496 kts 355°
2026-04-23 00:04 82.67349 19.67042 35844 ft 497 kts 355°
2026-04-23 00:04 82.74251 19.63320 35845 ft 497 kts 355°
2026-04-23 00:05 82.81162 19.59531 35851 ft 497 kts 355°
2026-04-23 00:05 82.88067 19.55667 35865 ft 498 kts 355°
2026-04-23 00:06 82.94935 19.51744 35925 ft 498 kts 355°
2026-04-23 00:06 83.01852 19.47730 35936 ft 498 kts 355°
2026-04-23 00:07 83.08780 19.43612 35935 ft 498 kts 355°
2026-04-23 00:07 83.15697 19.39405 35935 ft 498 kts 355°
2026-04-23 00:08 83.22624 19.35134 35944 ft 499 kts 355°
2026-04-23 00:08 83.29546 19.30767 35943 ft 499 kts 355°
2026-04-23 00:09 83.36428 19.26345 35947 ft 499 kts 354°
2026-04-23 00:09 83.43355 19.21785 35952 ft 499 kts 354°
2026-04-23 00:10 83.50290 19.17107 35953 ft 499 kts 354°
2026-04-23 00:10 83.57222 19.12350 35961 ft 500 kts 354°
2026-04-23 00:11 83.64162 19.07481 35961 ft 500 kts 354°
2026-04-23 00:11 83.71098 19.02509 35962 ft 500 kts 354°
2026-04-23 00:12 83.77989 18.97454 35971 ft 500 kts 354°
2026-04-23 00:12 83.84923 18.92262 35971 ft 500 kts 354°
2026-04-23 00:13 83.91860 18.86946 35979 ft 500 kts 354°
2026-04-23 00:13 83.98801 18.81520 35980 ft 500 kts 354°
2026-04-23 00:14 84.05752 18.75942 35981 ft 501 kts 354°
2026-04-23 00:14 84.12717 18.70211 35985 ft 502 kts 354°
2026-04-23 00:15 84.19635 18.64371 35985 ft 502 kts 354°
2026-04-23 00:15 84.26603 18.58375 35998 ft 502 kts 354°
2026-04-23 00:16 84.33558 18.52249 35995 ft 502 kts 354°
2026-04-23 00:16 84.40531 18.45949 36001 ft 502 kts 354°
2026-04-23 00:17 84.47490 18.39492 36009 ft 502 kts 354°
2026-04-23 00:17 84.54445 18.32884 36009 ft 502 kts 354°
2026-04-23 00:18 84.61413 18.26098 36012 ft 502 kts 354°
2026-04-23 00:18 84.68323 18.19177 36018 ft 502 kts 354°
2026-04-23 00:19 84.75279 18.12020 36024 ft 502 kts 354°
2026-04-23 00:19 84.82236 18.04673 36027 ft 502 kts 354°
2026-04-23 00:20 84.89193 17.97139 36028 ft 502 kts 353°
2026-04-23 00:20 84.96159 17.89380 36036 ft 503 kts 353°
2026-04-23 00:21 85.03128 17.81404 36036 ft 503 kts 353°
2026-04-23 00:21 85.10093 17.73183 36046 ft 503 kts 353°
2026-04-23 00:22 85.17016 17.64803 36050 ft 503 kts 353°
2026-04-23 00:22 85.23980 17.56113 36052 ft 503 kts 353°
2026-04-23 00:23 85.30946 17.47161 36055 ft 503 kts 353°
2026-04-23 00:23 85.37919 17.37933 36056 ft 504 kts 353°
2026-04-23 00:24 85.44891 17.28436 36060 ft 504 kts 353°
2026-04-23 00:24 85.51856 17.18664 36066 ft 503 kts 353°
2026-04-23 00:25 85.58825 17.08553 36062 ft 504 kts 353°
2026-04-23 00:25 85.65785 16.98119 36070 ft 504 kts 353°
2026-04-23 00:26 85.72747 16.87370 36072 ft 504 kts 353°
2026-04-23 00:26 85.79716 16.76232 36075 ft 504 kts 352°
2026-04-23 00:27 85.86630 16.64808 36084 ft 504 kts 352°
2026-04-23 00:27 85.93596 16.52899 36091 ft 505 kts 352°
2026-04-23 00:28 86.00565 16.40582 36099 ft 504 kts 352°
2026-04-23 00:28 86.07529 16.27813 36101 ft 504 kts 352°
2026-04-23 00:29 86.14498 16.14595 36100 ft 505 kts 352°
2026-04-23 00:29 86.21461 16.00885 36107 ft 504 kts 352°
2026-04-23 00:30 86.28426 15.86621 36110 ft 504 kts 352°
2026-04-23 00:30 86.35381 15.71846 36112 ft 504 kts 352°
2026-04-23 00:31 86.42334 15.56526 36118 ft 505 kts 351°
2026-04-23 00:31 86.49262 15.40663 36126 ft 505 kts 351°
2026-04-23 00:32 86.56212 15.24085 36130 ft 505 kts 351°
2026-04-23 00:32 86.63166 15.06798 36128 ft 505 kts 351°
2026-04-23 00:33 86.70118 14.88758 36139 ft 505 kts 351°
2026-04-23 00:33 86.77071 14.69958 36128 ft 505 kts 351°
2026-04-23 00:34 86.84016 14.50424 36148 ft 505 kts 350°
2026-04-23 00:34 86.90954 14.29937 36147 ft 505 kts 350°
2026-04-23 00:35 86.97849 14.08655 36147 ft 506 kts 350°
2026-04-23 00:35 87.04805 13.86106 36152 ft 506 kts 349°
2026-04-23 00:36 87.11748 13.62526 36156 ft 506 kts 349°
2026-04-23 00:36 87.18684 13.37817 36156 ft 506 kts 349°
2026-04-23 00:37 87.24442 13.16333 36156 ft 506 kts 349°
2026-04-23 00:37 87.31375 12.89212 36164 ft 506 kts 349°
2026-04-23 00:38 87.39418 12.55919 36166 ft 506 kts 348°
2026-04-23 00:38 87.45208 12.30677 36162 ft 506 kts 348°
2026-04-23 00:39 87.52116 11.98972 36166 ft 506 kts 348°
2026-04-23 00:39 87.58962 11.65661 36175 ft 506 kts 347°
2026-04-23 00:40 87.65856 11.30120 36175 ft 506 kts 347°
2026-04-23 00:40 87.72739 10.92441 36181 ft 506 kts 347°
2026-04-23 00:41 87.79608 10.52468 36185 ft 506 kts 346°
2026-04-23 00:41 87.86467 10.09959 36101 ft 506 kts 346°
2026-04-23 00:42 87.93317 9.64561 36002 ft 507 kts 345°
2026-04-23 00:42 88.00165 9.16019 36003 ft 507 kts 345°
2026-04-23 00:43 88.06990 8.64019 35997 ft 507 kts 345°
2026-04-23 00:43 88.13802 8.08197 35999 ft 507 kts 344°
2026-04-23 00:44 88.20546 7.48651 36010 ft 507 kts 343°
2026-04-23 00:44 88.27316 6.83993 36008 ft 507 kts 343°
2026-04-23 00:45 88.34065 6.14102 36003 ft 507 kts 342°
2026-04-23 00:45 88.40799 5.38116 35993 ft 507 kts 341°
2026-04-23 00:46 88.47490 4.55595 35985 ft 507 kts 341°
2026-04-23 00:46 88.54147 3.65633 36061 ft 507 kts 340°
2026-04-23 00:47 88.60767 2.67138 36063 ft 507 kts 339°
2026-04-23 00:47 88.67303 1.59478 36075 ft 507 kts 338°
2026-04-23 00:48 88.73829 0.39951 36105 ft 508 kts 336°
2026-04-23 00:48 88.80305 -0.92812 36127 ft 508 kts 335°
2026-04-23 00:49 88.86705 -2.40393 36126 ft 508 kts 334°
2026-04-23 00:49 88.93025 -4.05460 36077 ft 508 kts 332°
2026-04-23 00:50 88.99243 -5.90920 35998 ft 509 kts 330°
2026-04-23 00:50 89.05361 -8.00985 36014 ft 509 kts 328°
2026-04-23 00:51 89.11325 -10.39237 36121 ft 508 kts 326°
2026-04-23 00:51 89.17085 -13.09390 36262 ft 508 kts 323°
2026-04-23 00:52 89.22673 -16.21008 36381 ft 509 kts 320°
2026-04-23 00:52 89.27998 -19.79342 36412 ft 509 kts 316°
2026-04-23 00:53 89.32999 -23.92439 36414 ft 509 kts 313°
2026-04-23 00:53 89.37605 -28.69070 36385 ft 509 kts 308°
2026-04-23 00:54 89.41713 -34.16056 36369 ft 509 kts 302°
2026-04-23 00:54 89.45204 -40.35943 36367 ft 509 kts 296°
2026-04-23 00:55 89.47993 -47.34903 36354 ft 510 kts 289°
2026-04-23 00:55 89.49930 -55.00832 36394 ft 509 kts 282°
2026-04-23 00:56 89.51600 -63.00041 36390 ft 509 kts 282°
2026-04-23 00:56 89.52610 -71.40327 36386 ft 510 kts 274°
2026-04-23 00:57 89.52595 -79.97402 36388 ft 509 kts 266°
2026-04-23 00:57 89.51587 -88.36270 36381 ft 509 kts 258°
2026-04-23 00:58 89.49611 -96.21385 36377 ft 510 kts 250°
2026-04-23 00:58 89.46726 -103.37832 36375 ft 510 kts 242°
2026-04-23 00:59 89.43074 -109.71377 36375 ft 510 kts 236°
2026-04-23 00:59 89.38810 -115.21354 36348 ft 510 kts 230°
2026-04-23 01:00 89.34047 -119.96225 36355 ft 511 kts 226°
2026-04-23 01:00 89.28920 -124.03427 36341 ft 511 kts 221°
2026-04-23 01:01 89.23451 -127.56954 36344 ft 511 kts 218°
2026-04-23 01:01 89.17733 -130.62963 36368 ft 512 kts 215°
2026-04-23 01:02 89.11812 -133.29191 36368 ft 512 kts 213°
2026-04-23 01:02 89.05724 -135.61946 36367 ft 512 kts 211°
2026-04-23 01:03 88.99502 -137.66413 36437 ft 512 kts 208°
2026-04-23 01:03 88.93171 -139.47087 36486 ft 512 kts 207°
2026-04-23 01:04 88.86748 -141.07670 36486 ft 512 kts 205°
2026-04-23 01:04 88.77086 -143.28675 36485 ft 512 kts 205°
2026-04-23 01:05 88.70591 -144.61492 36477 ft 512 kts 204°
2026-04-23 01:05 88.64024 -145.80655 36493 ft 512 kts 202°
2026-04-23 01:06 88.57394 -146.88200 36496 ft 512 kts 201°
2026-04-23 01:06 88.50754 -147.85491 36486 ft 512 kts 200°
2026-04-23 01:07 88.44035 -148.74991 36485 ft 512 kts 199°
2026-04-23 01:07 88.37286 -149.57128 36486 ft 512 kts 199°
2026-04-23 01:08 88.30505 -150.32749 36486 ft 512 kts 198°
2026-04-23 01:08 88.23688 -151.02662 36485 ft 512 kts 197°
2026-04-23 01:09 88.16851 -151.67383 36454 ft 512 kts 197°
2026-04-23 01:09 88.09994 -152.27357 36433 ft 512 kts 196°
2026-04-23 01:10 88.03115 -152.83233 36427 ft 512 kts 195°
2026-04-23 01:10 87.96225 -153.35266 36431 ft 512 kts 195°
2026-04-23 01:11 87.89315 -153.83971 36433 ft 512 kts 194°
2026-04-23 01:11 87.82431 -154.29315 36429 ft 513 kts 194°
2026-04-23 01:12 87.75489 -154.72174 36433 ft 512 kts 194°
2026-04-23 01:12 87.68541 -155.12465 36429 ft 512 kts 193°
2026-04-23 01:13 87.61568 -155.50422 36432 ft 513 kts 193°
2026-04-23 01:13 87.54600 -155.86143 36432 ft 512 kts 193°
2026-04-23 01:14 87.47658 -156.19771 36428 ft 512 kts 192°
2026-04-23 01:14 87.40672 -156.51772 36431 ft 512 kts 192°
2026-04-23 01:15 87.33678 -156.82087 36431 ft 512 kts 192°
2026-04-23 01:15 87.26668 -157.10865 36430 ft 512 kts 191°
2026-04-23 01:16 87.19668 -157.38152 36432 ft 512 kts 191°
2026-04-23 01:16 87.12656 -157.64147 36411 ft 512 kts 191°
2026-04-23 01:17 87.05637 -157.88933 36413 ft 513 kts 191°
2026-04-23 01:17 86.98642 -158.12435 36414 ft 513 kts 190°
2026-04-23 01:18 86.91614 -158.34973 36427 ft 512 kts 190°
2026-04-23 01:18 86.84581 -158.56523 36411 ft 513 kts 190°
2026-04-23 01:19 86.77536 -158.77144 36413 ft 513 kts 190°
2026-04-23 01:19 86.70489 -158.96864 36410 ft 513 kts 189°
2026-04-23 01:20 86.63433 -159.15763 36410 ft 513 kts 189°
2026-04-23 01:20 86.56377 -159.33913 36409 ft 513 kts 189°
2026-04-23 01:21 86.49312 -159.51341 36411 ft 513 kts 189°
2026-04-23 01:21 86.42249 -159.68048 36416 ft 512 kts 189°
2026-04-23 01:22 86.35192 -159.84120 36415 ft 512 kts 188°
2026-04-23 01:22 86.28124 -159.99595 36414 ft 512 kts 188°
2026-04-23 01:23 86.21108 -160.14396 36416 ft 512 kts 188°
2026-04-23 01:23 86.14036 -160.28743 36411 ft 512 kts 188°
2026-04-23 01:24 86.06963 -160.42543 36412 ft 512 kts 188°
2026-04-23 01:24 86.01084 -160.53657 36414 ft 512 kts 188°
2026-04-23 01:25 85.94003 -160.66623 36415 ft 512 kts 188°
2026-04-23 01:25 85.86925 -160.79111 36418 ft 512 kts 188°
2026-04-23 01:26 85.79849 -160.91210 36420 ft 512 kts 187°
2026-04-23 01:26 85.72775 -161.02929 36419 ft 512 kts 187°
2026-04-23 01:27 85.65697 -161.14274 36424 ft 512 kts 187°
2026-04-23 01:27 85.58667 -161.25125 36421 ft 512 kts 187°
2026-04-23 01:28 85.51597 -161.35675 36419 ft 511 kts 187°
2026-04-23 01:28 85.44517 -161.45914 36421 ft 512 kts 187°
2026-04-23 01:29 85.37432 -161.55880 36421 ft 512 kts 187°
2026-04-23 01:29 85.30355 -161.65550 36421 ft 511 kts 187°
2026-04-23 01:30 85.23269 -161.74916 36421 ft 512 kts 187°
2026-04-23 01:30 85.16190 -161.83938 36423 ft 511 kts 186°
2026-04-23 01:31 85.09092 -161.92852 36420 ft 513 kts 186°
2026-04-23 01:31 85.02042 -162.01356 36423 ft 512 kts 186°
2026-04-23 01:32 84.94952 -162.09712 36424 ft 512 kts 186°
2026-04-23 01:32 84.87872 -162.17818 36424 ft 511 kts 186°
2026-04-23 01:33 84.80796 -162.25708 36422 ft 511 kts 186°
2026-04-23 01:33 84.73722 -162.33379 36422 ft 511 kts 186°
2026-04-23 01:34 84.66644 -162.40837 36423 ft 511 kts 186°
2026-04-23 01:34 84.59568 -162.48103 36422 ft 511 kts 186°
2026-04-23 01:35 84.52480 -162.55202 36422 ft 511 kts 186°
2026-04-23 01:35 84.45398 -162.62104 36420 ft 511 kts 186°
2026-04-23 01:36 84.38319 -162.68826 36421 ft 511 kts 186°
2026-04-23 01:36 84.31280 -162.75346 36421 ft 511 kts 185°
2026-04-23 01:37 84.24194 -162.81756 36421 ft 511 kts 185°
2026-04-23 01:37 84.17101 -162.87998 36423 ft 511 kts 185°
2026-04-23 01:38 84.10016 -162.94093 36433 ft 511 kts 185°
2026-04-23 01:38 84.02933 -163.00052 36441 ft 511 kts 185°
2026-04-23 01:39 83.95835 -163.05863 36418 ft 512 kts 185°
2026-04-23 01:39 83.88734 -163.11558 36411 ft 512 kts 185°
2026-04-23 01:40 83.81674 -163.17090 36414 ft 512 kts 185°
2026-04-23 01:40 83.74568 -163.22527 36410 ft 512 kts 185°
2026-04-23 01:41 83.67464 -163.27823 36360 ft 511 kts 185°
2026-04-23 01:41 83.60367 -163.33006 36356 ft 511 kts 185°
2026-04-23 01:42 83.53266 -163.38092 36357 ft 511 kts 185°
2026-04-23 01:42 83.46171 -163.43086 36357 ft 511 kts 185°
2026-04-23 01:43 83.39122 -163.47903 36357 ft 511 kts 185°
2026-04-23 01:43 83.32020 -163.52661 36357 ft 511 kts 185°
2026-04-23 01:44 83.24912 -163.57326 36357 ft 512 kts 185°
2026-04-23 01:44 83.17813 -163.61915 36358 ft 512 kts 185°
2026-04-23 01:45 83.10709 -163.66386 36357 ft 511 kts 185°
2026-04-23 01:45 83.03608 -163.70770 36358 ft 511 kts 185°
2026-04-23 01:46 82.96513 -163.75039 36357 ft 511 kts 185°
2026-04-23 01:46 82.89453 -163.79199 36357 ft 512 kts 185°
2026-04-23 01:47 82.82334 -163.83335 36358 ft 512 kts 185°
2026-04-23 01:47 82.75214 -163.87402 36351 ft 512 kts 185°
2026-04-23 01:48 82.68095 -163.91377 36348 ft 512 kts 185°
2026-04-23 01:48 82.60977 -163.95270 36348 ft 512 kts 185°
2026-04-23 01:49 82.53904 -163.99070 36348 ft 512 kts 185°
2026-04-23 01:49 82.46787 -164.02817 36350 ft 512 kts 184°
2026-04-23 01:50 82.39660 -164.06514 36348 ft 512 kts 184°
2026-04-23 01:50 82.32534 -164.10133 36350 ft 512 kts 184°
2026-04-23 01:51 82.25464 -164.13645 36347 ft 512 kts 184°
2026-04-23 01:51 82.18351 -164.17128 36348 ft 512 kts 184°
2026-04-23 01:52 82.11237 -164.20552 36346 ft 512 kts 184°
2026-04-23 01:52 82.04123 -164.23894 36338 ft 512 kts 184°
2026-04-23 01:53 81.97001 -164.27199 36338 ft 512 kts 184°
2026-04-23 01:53 81.89926 -164.30421 36340 ft 512 kts 184°
2026-04-23 01:54 81.82804 -164.33624 36342 ft 512 kts 184°
2026-04-23 01:54 81.75693 -164.36764 36341 ft 512 kts 184°
2026-04-23 01:55 81.68573 -164.39838 36344 ft 512 kts 184°
2026-04-23 01:55 81.61460 -164.42872 36342 ft 512 kts 184°
2026-04-23 01:56 81.54348 -164.45833 36343 ft 512 kts 184°
2026-04-23 01:56 81.47236 -164.48744 36338 ft 512 kts 184°
2026-04-23 01:57 81.40165 -164.51600 36329 ft 512 kts 184°
2026-04-23 01:57 81.33048 -164.54429 36332 ft 512 kts 184°
2026-04-23 01:58 81.25932 -164.57220 36327 ft 512 kts 184°
2026-04-23 01:58 81.18821 -164.59963 36329 ft 512 kts 184°
2026-04-23 01:59 81.11709 -164.62667 36330 ft 512 kts 184°
2026-04-23 01:59 81.04580 -164.65337 36327 ft 512 kts 184°
2026-04-23 02:00 80.97473 -164.67940 36331 ft 512 kts 184°
2026-04-23 02:00 80.90357 -164.70503 36333 ft 512 kts 184°
2026-04-23 02:01 80.83297 -164.73016 36336 ft 512 kts 184°
2026-04-23 02:01 80.76189 -164.75512 36329 ft 512 kts 184°
2026-04-23 02:02 80.69080 -164.77963 36327 ft 512 kts 184°
2026-04-23 02:02 80.61963 -164.80386 36331 ft 511 kts 184°
2026-04-23 02:03 80.54853 -164.82772 36327 ft 512 kts 184°
2026-04-23 02:03 80.47747 -164.85114 36328 ft 511 kts 184°
2026-04-23 02:04 80.40642 -164.87422 36327 ft 511 kts 184°
2026-04-23 02:04 80.33537 -164.89696 36328 ft 511 kts 184°
2026-04-23 02:05 80.26433 -164.91935 36330 ft 511 kts 184°
2026-04-23 02:05 80.19371 -164.94133 36327 ft 511 kts 184°
2026-04-23 02:06 80.12261 -164.96324 36327 ft 512 kts 184°
2026-04-23 02:06 80.05137 -164.98471 36338 ft 512 kts 184°
2026-04-23 02:07 79.98027 -165.00635 36327 ft 511 kts 185°
2026-04-23 02:07 79.90936 -165.03963 36335 ft 510 kts 186°
2026-04-23 02:08 79.83913 -165.07725 36327 ft 510 kts 186°
2026-04-23 02:08 79.76845 -165.11313 36326 ft 510 kts 186°
2026-04-23 02:09 79.69770 -165.14707 36329 ft 510 kts 186°
2026-04-23 02:09 79.62688 -165.18009 36329 ft 510 kts 186°
2026-04-23 02:10 79.55619 -165.21252 36330 ft 510 kts 186°
2026-04-23 02:10 79.48547 -165.24474 36326 ft 510 kts 186°
2026-04-23 02:11 79.41472 -165.27664 36326 ft 510 kts 186°
2026-04-23 02:11 79.34448 -165.30774 36328 ft 510 kts 186°
2026-04-23 02:12 79.27379 -165.33863 36333 ft 509 kts 186°
2026-04-23 02:12 79.20307 -165.36906 36317 ft 509 kts 186°
2026-04-23 02:13 79.14436 -165.39419 36323 ft 509 kts 186°
2026-04-23 02:13 79.07375 -165.42403 36329 ft 508 kts 186°
2026-04-23 02:14 79.00322 -165.45339 36327 ft 508 kts 186°
2026-04-23 02:14 78.93273 -165.48238 36330 ft 508 kts 186°
2026-04-23 02:15 78.82703 -165.52520 36327 ft 508 kts 186°
2026-04-23 02:16 78.75651 -165.55313 36329 ft 507 kts 186°
2026-04-23 02:16 78.68612 -165.58093 36333 ft 507 kts 186°
2026-04-23 02:17 78.61573 -165.60836 36337 ft 507 kts 185°
2026-04-23 02:17 78.54526 -165.63539 36330 ft 507 kts 185°
2026-04-23 02:18 78.47504 -165.66220 36327 ft 506 kts 185°
2026-04-23 02:18 78.40480 -165.68857 36320 ft 506 kts 185°
2026-04-23 02:19 78.33456 -165.71444 36317 ft 506 kts 185°
2026-04-23 02:19 78.26440 -165.74008 36323 ft 506 kts 185°
2026-04-23 02:20 78.19464 -165.76532 36324 ft 505 kts 185°
2026-04-23 02:20 78.12449 -165.79042 36317 ft 505 kts 185°
2026-04-23 02:21 78.05427 -165.81521 36316 ft 505 kts 185°
2026-04-23 02:21 77.98405 -165.83968 36322 ft 505 kts 185°
2026-04-23 02:22 77.91387 -165.86397 36327 ft 505 kts 185°
2026-04-23 02:22 77.84376 -165.88795 36327 ft 505 kts 185°
2026-04-23 02:23 77.77404 -165.91144 36325 ft 505 kts 185°
2026-04-23 02:23 77.70385 -165.93486 36316 ft 505 kts 185°
2026-04-23 02:24 77.63370 -165.95802 36323 ft 505 kts 185°
2026-04-23 02:24 77.56353 -165.98096 36327 ft 505 kts 185°
2026-04-23 02:25 77.49345 -166.00356 36316 ft 505 kts 185°
2026-04-23 02:25 77.42339 -166.02589 36317 ft 505 kts 185°
2026-04-23 02:26 77.35317 -166.04791 36316 ft 505 kts 185°
2026-04-23 02:26 77.28311 -166.06993 36323 ft 505 kts 185°
2026-04-23 02:27 77.21302 -166.09168 36324 ft 504 kts 185°
2026-04-23 02:27 77.14348 -166.11283 36323 ft 504 kts 185°
2026-04-23 02:28 77.07356 -166.13388 36328 ft 504 kts 185°
2026-04-23 02:28 77.00362 -166.15483 36302 ft 504 kts 185°
2026-04-23 02:29 76.93374 -166.17554 36307 ft 503 kts 185°
2026-04-23 02:29 76.86387 -166.19596 36299 ft 503 kts 185°
2026-04-23 02:30 76.79399 -166.21624 36300 ft 503 kts 185°
2026-04-23 02:30 76.72409 -166.23628 36299 ft 502 kts 185°
2026-04-23 02:31 76.65472 -166.25590 36299 ft 502 kts 185°
2026-04-23 02:31 76.58496 -166.27541 36312 ft 502 kts 185°
2026-04-23 02:32 76.51519 -166.29485 36299 ft 502 kts 185°
2026-04-23 02:32 76.44581 -166.31398 36300 ft 502 kts 185°
2026-04-23 02:33 76.37610 -166.33299 36299 ft 502 kts 185°
2026-04-23 02:33 76.30645 -166.35183 36300 ft 501 kts 185°
2026-04-23 02:34 76.23682 -166.37047 36299 ft 501 kts 185°
2026-04-23 02:34 76.16712 -166.38891 36299 ft 501 kts 184°
2026-04-23 02:35 76.09751 -166.40712 36300 ft 501 kts 184°
2026-04-23 02:35 76.02834 -166.42501 36251 ft 501 kts 184°
2026-04-23 02:36 75.95872 -166.44295 36220 ft 500 kts 184°
2026-04-23 02:36 75.88925 -166.46060 36220 ft 500 kts 184°
2026-04-23 02:37 75.81974 -166.47805 36220 ft 500 kts 184°
2026-04-23 02:37 75.75033 -166.49535 36221 ft 500 kts 184°
2026-04-23 02:38 75.68092 -166.51268 36220 ft 499 kts 184°
2026-04-23 02:38 75.61153 -166.52966 36220 ft 499 kts 184°
2026-04-23 02:39 75.54222 -166.54640 36220 ft 499 kts 184°
2026-04-23 02:39 75.47286 -166.56300 36220 ft 500 kts 184°
2026-04-23 02:40 75.40391 -166.57940 36220 ft 499 kts 184°
2026-04-23 02:40 75.33451 -166.59572 36220 ft 499 kts 184°
2026-04-23 02:41 75.26523 -166.61195 36220 ft 498 kts 184°
2026-04-23 02:41 75.19609 -166.62792 36220 ft 498 kts 184°
2026-04-23 02:42 75.12691 -166.64379 36220 ft 498 kts 184°
2026-04-23 02:42 75.05775 -166.65954 36220 ft 498 kts 184°
2026-04-23 02:43 74.98851 -166.67512 36220 ft 498 kts 184°
2026-04-23 02:43 74.91985 -166.69040 36220 ft 498 kts 184°
2026-04-23 02:44 74.85067 -166.70572 36220 ft 497 kts 184°
2026-04-23 02:44 74.78156 -166.72088 36220 ft 497 kts 184°
2026-04-23 02:45 74.71249 -166.73589 36220 ft 496 kts 184°
2026-04-23 02:45 74.64356 -166.75074 36221 ft 496 kts 184°
2026-04-23 02:46 74.57506 -166.76535 36220 ft 496 kts 184°
2026-04-23 02:46 74.50615 -166.77993 36220 ft 496 kts 184°
2026-04-23 02:47 74.43714 -166.79442 36220 ft 496 kts 184°
2026-04-23 02:47 74.36828 -166.80874 36209 ft 496 kts 184°
2026-04-23 02:48 74.29934 -166.82287 36182 ft 496 kts 184°
2026-04-23 02:48 74.23043 -166.83687 36185 ft 495 kts 184°
2026-04-23 02:49 74.16209 -166.85090 36185 ft 495 kts 184°
2026-04-23 02:49 74.09326 -166.86477 36183 ft 495 kts 184°
2026-04-23 02:50 74.02445 -166.87847 36183 ft 495 kts 184°
2026-04-23 02:50 73.95568 -166.89200 36181 ft 495 kts 184°
2026-04-23 02:51 73.88703 -166.90546 36181 ft 493 kts 184°
2026-04-23 02:51 73.81853 -166.91881 36182 ft 493 kts 184°
2026-04-23 02:52 73.75013 -166.93209 36180 ft 493 kts 184°
2026-04-23 02:52 73.68161 -166.94518 36183 ft 492 kts 184°
2026-04-23 02:53 73.61316 -166.95818 36184 ft 493 kts 184°
2026-04-23 02:53 73.54468 -166.97102 36185 ft 492 kts 184°
2026-04-23 02:54 73.47663 -166.98367 36184 ft 492 kts 184°
2026-04-23 02:54 73.40816 -166.99628 36184 ft 492 kts 184°
2026-04-23 02:55 73.33977 -167.00884 36185 ft 492 kts 184°
2026-04-23 02:55 73.27139 -167.02135 36183 ft 491 kts 184°
2026-04-23 02:56 73.20347 -167.03361 36185 ft 491 kts 184°
2026-04-23 02:56 73.13501 -167.04589 36183 ft 492 kts 184°
2026-04-23 02:57 73.06670 -167.05804 36184 ft 491 kts 184°
2026-04-23 02:57 72.99846 -167.07004 36185 ft 491 kts 184°
2026-04-23 02:58 72.93061 -167.08194 36188 ft 490 kts 184°
2026-04-23 02:58 72.86254 -167.09382 36194 ft 490 kts 184°
2026-04-23 02:59 72.79442 -167.10553 36194 ft 490 kts 184°
2026-04-23 02:59 72.72628 -167.11717 36191 ft 490 kts 184°
2026-04-23 03:00 72.65817 -167.12883 36202 ft 490 kts 184°
2026-04-23 03:00 72.59010 -167.14032 36201 ft 489 kts 184°
2026-04-23 03:01 72.52213 -167.15164 36202 ft 489 kts 184°
2026-04-23 03:01 72.45450 -167.16277 36202 ft 489 kts 184°
2026-04-23 03:02 72.38658 -167.17397 36202 ft 489 kts 184°
2026-04-23 03:02 72.33009 -167.18323 36202 ft 488 kts 184°
2026-04-23 03:03 72.26210 -167.19433 36203 ft 488 kts 185°
2026-04-23 03:03 72.19461 -167.20511 36202 ft 484 kts 185°
2026-04-23 03:04 72.12731 -167.21593 36202 ft 483 kts 185°
2026-04-23 03:04 72.06014 -167.22666 36201 ft 483 kts 185°
2026-04-23 03:05 71.99287 -167.23732 36201 ft 483 kts 185°
2026-04-23 03:05 71.92626 -167.24775 36202 ft 481 kts 185°
2026-04-23 03:06 71.85960 -167.25810 36202 ft 479 kts 185°
2026-04-23 03:06 71.79292 -167.26843 36202 ft 479 kts 185°
2026-04-23 03:07 71.72630 -167.27865 36202 ft 479 kts 185°
2026-04-23 03:07 71.65972 -167.28876 36206 ft 479 kts 185°
2026-04-23 03:08 71.59301 -167.29886 36211 ft 479 kts 185°
2026-04-23 03:08 71.52647 -167.30883 36236 ft 479 kts 185°
2026-04-23 03:09 71.46032 -167.31875 36257 ft 478 kts 185°
2026-04-23 03:09 71.39384 -167.32858 36250 ft 478 kts 185°
2026-04-23 03:10 71.32735 -167.33836 36249 ft 478 kts 185°
2026-04-23 03:10 71.26086 -167.34806 36249 ft 478 kts 185°
2026-04-23 03:11 71.19450 -167.35765 36249 ft 477 kts 185°
2026-04-23 03:11 71.12810 -167.36723 36248 ft 476 kts 185°
2026-04-23 03:12 71.06193 -167.37672 36247 ft 476 kts 185°
2026-04-23 03:12 70.99583 -167.38613 36239 ft 475 kts 185°
2026-04-23 03:13 70.92977 -167.39548 36238 ft 475 kts 185°
2026-04-23 03:13 70.86431 -167.40466 36239 ft 474 kts 185°
2026-04-23 03:14 70.79851 -167.41383 36239 ft 473 kts 185°
2026-04-23 03:14 70.73281 -167.42293 36239 ft 472 kts 185°
2026-04-23 03:15 70.66720 -167.43192 36236 ft 472 kts 185°
2026-04-23 03:15 70.60165 -167.44089 36230 ft 471 kts 185°
2026-04-23 03:16 70.53612 -167.44979 36230 ft 470 kts 185°
2026-04-23 03:16 70.43791 -167.46305 36229 ft 470 kts 185°
2026-04-23 03:17 70.37257 -167.47188 36230 ft 470 kts 185°
2026-04-23 03:17 70.30766 -167.48042 36229 ft 469 kts 185°
2026-04-23 03:18 70.24251 -167.48896 36220 ft 468 kts 185°
2026-04-23 03:18 70.17734 -167.49752 36220 ft 469 kts 185°
2026-04-23 03:19 70.11222 -167.50604 36220 ft 468 kts 185°
2026-04-23 03:19 70.04712 -167.51446 36220 ft 468 kts 185°
2026-04-23 03:20 69.98201 -167.52284 36221 ft 467 kts 185°
2026-04-23 03:20 69.91751 -167.53112 36215 ft 466 kts 185°
2026-04-23 03:21 69.85265 -167.53932 36147 ft 466 kts 185°
2026-04-23 03:21 69.78790 -167.54750 36147 ft 465 kts 185°
2026-04-23 03:22 69.72332 -167.55559 36185 ft 465 kts 185°
2026-04-23 03:22 69.65858 -167.56364 36185 ft 465 kts 185°
2026-04-23 03:23 69.59389 -167.57169 36184 ft 465 kts 185°
2026-04-23 03:23 69.52913 -167.57970 36175 ft 465 kts 184°
2026-04-23 03:24 69.46445 -167.58761 36176 ft 465 kts 184°
2026-04-23 03:24 69.39984 -167.59547 36167 ft 465 kts 184°
2026-04-23 03:25 69.33519 -167.60329 36165 ft 464 kts 184°
2026-04-23 03:25 69.27104 -167.61102 36164 ft 464 kts 184°
2026-04-23 03:26 69.20655 -167.61871 36156 ft 464 kts 184°
2026-04-23 03:26 69.14201 -167.62639 36158 ft 464 kts 184°
2026-04-23 03:27 69.07759 -167.63396 36155 ft 463 kts 184°
2026-04-23 03:27 69.01332 -167.64153 36147 ft 463 kts 184°
2026-04-23 03:28 68.94895 -167.64897 36148 ft 462 kts 184°
2026-04-23 03:28 68.88462 -167.65646 36147 ft 462 kts 184°
2026-04-23 03:29 68.82044 -167.66399 36164 ft 461 kts 184°
2026-04-23 03:29 68.75679 -167.67138 36164 ft 460 kts 183°
2026-04-23 03:30 68.69274 -167.67867 36155 ft 460 kts 183°
2026-04-23 03:30 68.62888 -167.68574 36155 ft 459 kts 183°
2026-04-23 03:31 68.56503 -167.69300 36147 ft 460 kts 183°
2026-04-23 03:31 68.50106 -167.70027 36147 ft 459 kts 183°
2026-04-23 03:32 68.43721 -167.70741 36146 ft 459 kts 183°
2026-04-23 03:32 68.37381 -167.71431 36145 ft 459 kts 183°
2026-04-23 03:33 68.30989 -167.72140 36131 ft 458 kts 182°
2026-04-23 03:33 68.24621 -167.72855 36133 ft 458 kts 182°
2026-04-23 03:34 68.18251 -167.73544 36130 ft 458 kts 182°
2026-04-23 03:34 68.11878 -167.74225 36132 ft 458 kts 182°
2026-04-23 03:35 68.05504 -167.74908 36126 ft 458 kts 182°
2026-04-23 03:35 67.99130 -167.75596 36132 ft 458 kts 182°
2026-04-23 03:36 67.92763 -167.76281 36124 ft 458 kts 182°
2026-04-23 03:36 67.86437 -167.76951 36118 ft 458 kts 182°
2026-04-23 03:37 67.80063 -167.77616 36121 ft 458 kts 182°
2026-04-23 03:37 67.73692 -167.78288 36112 ft 457 kts 182°
2026-04-23 03:38 67.67341 -167.78960 36111 ft 455 kts 182°
2026-04-23 03:38 67.60998 -167.79610 36101 ft 456 kts 182°
2026-04-23 03:39 67.54697 -167.80252 36094 ft 455 kts 182°
2026-04-23 03:39 67.48359 -167.80913 36091 ft 456 kts 182°
2026-04-23 03:40 67.42023 -167.81568 36081 ft 455 kts 182°
2026-04-23 03:40 67.35694 -167.82203 36069 ft 455 kts 182°
2026-04-23 03:41 67.29371 -167.82840 36061 ft 455 kts 182°
2026-04-23 03:41 67.23047 -167.83472 36049 ft 454 kts 182°
2026-04-23 03:42 67.16730 -167.84108 36036 ft 454 kts 182°
2026-04-23 03:42 67.10414 -167.84738 35968 ft 453 kts 182°
2026-04-23 03:43 67.04158 -167.85355 35936 ft 452 kts 182°
2026-04-23 03:43 66.97866 -167.85979 35926 ft 452 kts 181°
2026-04-23 03:44 66.91587 -167.86602 35917 ft 451 kts 181°
2026-04-23 03:44 66.85310 -167.87217 35908 ft 450 kts 181°
2026-04-23 03:45 66.79044 -167.87822 35903 ft 451 kts 181°
2026-04-23 03:45 66.72791 -167.88416 35897 ft 449 kts 181°
2026-04-23 03:46 66.66534 -167.89012 35888 ft 449 kts 181°
2026-04-23 03:46 66.60288 -167.89607 35881 ft 449 kts 181°
2026-04-23 03:47 66.54088 -167.90197 35879 ft 448 kts 181°
2026-04-23 03:47 66.47838 -167.90796 35866 ft 449 kts 181°
2026-04-23 03:48 66.41591 -167.91384 35862 ft 448 kts 181°
2026-04-23 03:48 66.35361 -167.91967 35865 ft 448 kts 181°
2026-04-23 03:49 66.29123 -167.92550 35859 ft 449 kts 181°
2026-04-23 03:49 66.22878 -167.93121 35852 ft 448 kts 181°
2026-04-23 03:50 66.17702 -167.93602 35850 ft 447 kts 180°
2026-04-23 03:50 66.11476 -167.94168 35853 ft 448 kts 180°
2026-04-23 03:51 66.04246 -167.94819 35855 ft 447 kts 180°
2026-04-23 03:51 65.99026 -167.95301 35849 ft 448 kts 180°
2026-04-23 03:52 65.92792 -167.95880 35850 ft 448 kts 180°
2026-04-23 03:52 65.86601 -167.96436 35851 ft 448 kts 180°
2026-04-23 03:53 65.80368 -167.96998 35855 ft 448 kts 180°
2026-04-23 03:53 65.74129 -167.97551 35853 ft 448 kts 180°
2026-04-23 03:54 65.67897 -167.98102 35850 ft 449 kts 180°
2026-04-23 03:54 65.61666 -167.98656 35852 ft 448 kts 180°
2026-04-23 03:55 65.55437 -167.99200 35850 ft 448 kts 180°
2026-04-23 03:55 65.49202 -167.99743 35846 ft 448 kts 180°
2026-04-23 03:56 65.42964 -168.00285 35847 ft 448 kts 180°
2026-04-23 03:56 65.36715 -168.00831 35841 ft 450 kts 180°
2026-04-23 03:57 65.30451 -168.01370 35838 ft 450 kts 180°
2026-04-23 03:57 65.24235 -168.01902 35834 ft 451 kts 180°
2026-04-23 03:58 65.17960 -168.02434 35827 ft 451 kts 180°
2026-04-23 03:58 65.11684 -168.02967 35822 ft 452 kts 180°
2026-04-23 03:59 65.05390 -168.03499 35813 ft 452 kts 180°
2026-04-23 03:59 64.99086 -168.04054 35812 ft 453 kts 181°
2026-04-23 04:00 64.92805 -168.05816 35806 ft 455 kts 186°
2026-04-23 04:00 64.86537 -168.08037 35804 ft 455 kts 186°
2026-04-23 04:01 64.80269 -168.10324 35803 ft 456 kts 186°
2026-04-23 04:01 64.74025 -168.12571 35813 ft 457 kts 186°
2026-04-23 04:02 64.67724 -168.14811 35806 ft 457 kts 186°
2026-04-23 04:02 64.61437 -168.17028 35799 ft 457 kts 186°
2026-04-23 04:03 64.55139 -168.19233 35796 ft 458 kts 186°
2026-04-23 04:03 64.48828 -168.21435 35788 ft 458 kts 186°
2026-04-23 04:04 64.42517 -168.23629 35796 ft 458 kts 186°
2026-04-23 04:04 64.36214 -168.25810 35784 ft 458 kts 186°
2026-04-23 04:05 64.29903 -168.27986 35780 ft 459 kts 186°
2026-04-23 04:05 64.23631 -168.30127 35770 ft 459 kts 186°
2026-04-23 04:06 64.17318 -168.32281 35770 ft 458 kts 186°
2026-04-23 04:06 64.11008 -168.34429 35764 ft 458 kts 186°
2026-04-23 04:07 64.04702 -168.36563 35766 ft 458 kts 186°
2026-04-23 04:07 63.98388 -168.38682 35756 ft 458 kts 186°
2026-04-23 04:08 63.92078 -168.40799 35755 ft 459 kts 186°
2026-04-23 04:08 63.85751 -168.42916 35751 ft 459 kts 186°
2026-04-23 04:09 63.79428 -168.45018 35748 ft 459 kts 186°
2026-04-23 04:09 63.73093 -168.47112 35730 ft 460 kts 186°
2026-04-23 04:10 63.66752 -168.49199 35723 ft 460 kts 186°
2026-04-23 04:10 63.60455 -168.51258 35719 ft 460 kts 186°
2026-04-23 04:11 63.54114 -168.53322 35724 ft 460 kts 186°
2026-04-23 04:11 63.47778 -168.55381 35722 ft 460 kts 186°
2026-04-23 04:12 63.41429 -168.57430 35723 ft 461 kts 186°
2026-04-23 04:12 63.35072 -168.59478 35711 ft 462 kts 186°
2026-04-23 04:13 63.28700 -168.61517 35710 ft 462 kts 186°
2026-04-23 04:13 63.22325 -168.63552 35710 ft 463 kts 186°
2026-04-23 04:14 63.15994 -168.65561 35710 ft 462 kts 186°
2026-04-23 04:14 63.09626 -168.67578 35701 ft 462 kts 186°
2026-04-23 04:15 63.03248 -168.69580 35701 ft 463 kts 186°
2026-04-23 04:16 62.93670 -168.72574 35695 ft 464 kts 186°
2026-04-23 04:16 62.87281 -168.74562 35692 ft 464 kts 186°
2026-04-23 04:17 62.80883 -168.76546 35702 ft 464 kts 186°
2026-04-23 04:17 62.74486 -168.78520 35700 ft 465 kts 186°
2026-04-23 04:18 62.68088 -168.80484 35692 ft 464 kts 186°
2026-04-23 04:18 62.61724 -168.82431 35682 ft 464 kts 186°
2026-04-23 04:19 62.55319 -168.84382 35683 ft 465 kts 186°
2026-04-23 04:19 62.48909 -168.86323 35683 ft 465 kts 186°
2026-04-23 04:20 62.42492 -168.88261 35673 ft 465 kts 186°
2026-04-23 04:20 62.36078 -168.90188 35673 ft 465 kts 186°
2026-04-23 04:21 62.29657 -168.92107 35674 ft 466 kts 186°
2026-04-23 04:21 62.23232 -168.94020 35664 ft 466 kts 186°
2026-04-23 04:22 62.16806 -168.95928 35664 ft 466 kts 186°
2026-04-23 04:22 62.10419 -168.97819 35664 ft 466 kts 186°
2026-04-23 04:23 62.03946 -168.99721 35655 ft 467 kts 186°
2026-04-23 04:23 61.97551 -169.01592 35654 ft 467 kts 186°
2026-04-23 04:24 61.91077 -169.03478 35654 ft 467 kts 186°
2026-04-23 04:24 61.84688 -169.05334 35651 ft 466 kts 186°
2026-04-23 04:25 61.78253 -169.07194 35638 ft 467 kts 186°
2026-04-23 04:25 61.71803 -169.09054 35616 ft 467 kts 186°
2026-04-23 04:26 61.65347 -169.10904 35818 ft 468 kts 188°
2026-04-23 04:26 61.62115 -169.11833 36012 ft 468 kts 186°
2026-04-23 04:26 61.58940 -169.12744 35864 ft 452 kts 186°
2026-04-23 04:26 61.55857 -169.13633 35660 ft 442 kts 186°
2026-04-23 04:27 61.52804 -169.14501 35604 ft 445 kts 186°
2026-04-23 04:27 61.46570 -169.16241 35605 ft 459 kts 186°
2026-04-23 04:28 61.36965 -169.18944 35599 ft 468 kts 186°
2026-04-23 04:28 61.30516 -169.20755 35599 ft 467 kts 186°
2026-04-23 04:29 61.24067 -169.22558 35599 ft 467 kts 186°
2026-04-23 04:29 61.17615 -169.24353 35599 ft 467 kts 186°
2026-04-23 04:30 61.11164 -169.26138 35590 ft 467 kts 186°
2026-04-23 04:30 61.04717 -169.27920 35590 ft 467 kts 186°
2026-04-23 04:31 60.98271 -169.29688 35589 ft 467 kts 186°
2026-04-23 04:31 60.91858 -169.31439 35589 ft 468 kts 186°
2026-04-23 04:32 60.85404 -169.33197 35580 ft 468 kts 186°
2026-04-23 04:32 60.78939 -169.34952 35580 ft 468 kts 186°
2026-04-23 04:33 60.72480 -169.36698 35580 ft 468 kts 186°
2026-04-23 04:33 60.66029 -169.38432 35572 ft 468 kts 186°
2026-04-23 04:34 60.59608 -169.40152 35571 ft 468 kts 186°
2026-04-23 04:34 60.53155 -169.41876 35571 ft 468 kts 186°
2026-04-23 04:35 60.46702 -169.43589 35567 ft 468 kts 186°
2026-04-23 04:35 60.40238 -169.45303 35561 ft 468 kts 186°
2026-04-23 04:36 60.33777 -169.47003 35553 ft 468 kts 186°
2026-04-23 04:36 60.28406 -169.48414 35552 ft 468 kts 186°
2026-04-23 04:37 60.21936 -169.50111 35552 ft 469 kts 186°
2026-04-23 04:37 60.15458 -169.51801 35545 ft 469 kts 186°
2026-04-23 04:38 60.07935 -169.53753 35542 ft 469 kts 186°
2026-04-23 04:38 60.02513 -169.55154 35542 ft 469 kts 186°
2026-04-23 04:39 59.96039 -169.56825 35509 ft 469 kts 186°
2026-04-23 04:39 59.89567 -169.58486 35499 ft 469 kts 186°
2026-04-23 04:40 59.83101 -169.60138 35493 ft 468 kts 186°
2026-04-23 04:40 59.76667 -169.61775 35486 ft 468 kts 186°
2026-04-23 04:41 59.70190 -169.63416 35477 ft 468 kts 186°
2026-04-23 04:41 59.63731 -169.65049 35476 ft 467 kts 186°
2026-04-23 04:42 59.57277 -169.66673 35468 ft 467 kts 186°
2026-04-23 04:42 59.50823 -169.68297 35414 ft 467 kts 186°
2026-04-23 04:43 59.44410 -169.69898 35398 ft 467 kts 186°
2026-04-23 04:43 59.37954 -169.71508 35388 ft 467 kts 186°
2026-04-23 04:44 59.31505 -169.73104 35377 ft 467 kts 186°
2026-04-23 04:44 59.25067 -169.74688 35369 ft 466 kts 186°
2026-04-23 04:45 59.18630 -169.76268 35361 ft 466 kts 186°
2026-04-23 04:45 59.12205 -169.77844 35347 ft 465 kts 186°
2026-04-23 04:46 59.05817 -169.79405 35338 ft 465 kts 186°
2026-04-23 04:46 58.99396 -169.80968 35329 ft 465 kts 186°
2026-04-23 04:47 58.92981 -169.82523 35327 ft 464 kts 186°
2026-04-23 04:47 58.86567 -169.84069 35317 ft 464 kts 186°
2026-04-23 04:48 58.80160 -169.85608 35308 ft 464 kts 186°
2026-04-23 04:48 58.73751 -169.87144 35297 ft 464 kts 186°
2026-04-23 04:49 58.67353 -169.88673 35290 ft 463 kts 186°
2026-04-23 04:49 58.60968 -169.90196 35283 ft 462 kts 186°
2026-04-23 04:50 58.54580 -169.91711 35264 ft 463 kts 186°
2026-04-23 04:50 58.48233 -169.93203 35262 ft 462 kts 186°
2026-04-23 04:51 58.41839 -169.94707 35252 ft 462 kts 186°
2026-04-23 04:51 58.35445 -169.96207 35252 ft 462 kts 186°
2026-04-23 04:52 58.29059 -169.97699 35241 ft 462 kts 186°
2026-04-23 04:52 58.22669 -169.99186 35233 ft 462 kts 186°
2026-04-23 04:53 58.16280 -170.00667 35232 ft 463 kts 186°
2026-04-23 04:53 58.09887 -170.02143 35222 ft 462 kts 186°
2026-04-23 04:54 58.03537 -170.03604 35219 ft 462 kts 186°
2026-04-23 04:54 57.97141 -170.05071 35213 ft 463 kts 186°
2026-04-23 04:55 57.90745 -170.06531 35213 ft 463 kts 186°
2026-04-23 04:55 57.84345 -170.07984 35204 ft 462 kts 186°
2026-04-23 04:56 57.77955 -170.09437 35204 ft 462 kts 186°
2026-04-23 04:56 57.71559 -170.10882 35198 ft 462 kts 186°
2026-04-23 04:57 57.65214 -170.12313 35194 ft 462 kts 186°
2026-04-23 04:57 57.58827 -170.13749 35194 ft 463 kts 186°
2026-04-23 04:58 57.52433 -170.15180 35194 ft 462 kts 186°
2026-04-23 04:58 57.46055 -170.16601 35186 ft 462 kts 186°
2026-04-23 04:59 57.39663 -170.18021 35185 ft 461 kts 186°
2026-04-23 04:59 57.33287 -170.19430 35184 ft 461 kts 186°
2026-04-23 05:00 57.26904 -170.20862 35183 ft 461 kts 188°
2026-04-23 05:00 57.20730 -170.24028 35185 ft 463 kts 202°
2026-04-23 05:01 57.15306 -170.30426 35186 ft 468 kts 219°
2026-04-23 05:01 57.11242 -170.39734 35186 ft 475 kts 237°
2026-04-23 05:02 57.08196 -170.50545 35184 ft 477 kts 240°
2026-04-23 05:02 57.05298 -170.61522 35184 ft 478 kts 240°
2026-04-23 05:03 57.02366 -170.72468 35185 ft 478 kts 240°
2026-04-23 05:03 56.99383 -170.83385 35184 ft 478 kts 239°
2026-04-23 05:04 56.96384 -170.94241 35184 ft 477 kts 239°
2026-04-23 05:04 56.93372 -171.05094 35184 ft 478 kts 239°
2026-04-23 05:05 56.90367 -171.15873 35185 ft 478 kts 239°
2026-04-23 05:05 56.87333 -171.26696 35184 ft 478 kts 239°
2026-04-23 05:06 56.84291 -171.37521 35185 ft 479 kts 239°
2026-04-23 05:06 56.81241 -171.48327 35184 ft 479 kts 239°
2026-04-23 05:07 56.78173 -171.59133 35193 ft 479 kts 239°
2026-04-23 05:07 56.75104 -171.69893 35194 ft 478 kts 239°
2026-04-23 05:08 56.72044 -171.80570 35187 ft 479 kts 239°
2026-04-23 05:08 56.68956 -171.91298 35184 ft 478 kts 239°
2026-04-23 05:09 56.65853 -172.02028 35185 ft 478 kts 239°
2026-04-23 05:09 56.62740 -172.12738 35184 ft 479 kts 239°
2026-04-23 05:10 56.59614 -172.23451 35189 ft 480 kts 239°
2026-04-23 05:10 56.56500 -172.34081 35194 ft 480 kts 239°
2026-04-23 05:11 56.53355 -172.44767 35204 ft 480 kts 239°
2026-04-23 05:11 56.50197 -172.55426 35204 ft 480 kts 239°
2026-04-23 05:12 56.47027 -172.66084 35204 ft 481 kts 239°
2026-04-23 05:12 56.43852 -172.76719 35199 ft 481 kts 239°
2026-04-23 05:13 56.40663 -172.87351 35201 ft 481 kts 239°
2026-04-23 05:14 56.35856 -173.03285 35200 ft 483 kts 239°
2026-04-23 05:14 56.32655 -173.13843 35202 ft 483 kts 239°
2026-04-23 05:15 56.29422 -173.24452 35201 ft 483 kts 239°
2026-04-23 05:15 56.26174 -173.35062 35204 ft 484 kts 239°
2026-04-23 05:16 56.22915 -173.45669 35213 ft 484 kts 239°
2026-04-23 05:16 56.19645 -173.56255 35213 ft 484 kts 239°
2026-04-23 05:17 56.16367 -173.66811 35213 ft 484 kts 239°
2026-04-23 05:17 56.13081 -173.77356 35213 ft 484 kts 239°
2026-04-23 05:18 56.09804 -173.87827 35213 ft 484 kts 239°
2026-04-23 05:18 56.06500 -173.98336 35225 ft 484 kts 239°
2026-04-23 05:19 56.03189 -174.08826 35249 ft 484 kts 239°
2026-04-23 05:19 55.99865 -174.19308 35251 ft 484 kts 238°
2026-04-23 05:20 55.96534 -174.29761 35234 ft 484 kts 238°
2026-04-23 05:20 55.93190 -174.40204 35231 ft 484 kts 238°
2026-04-23 05:21 55.89842 -174.50625 35232 ft 485 kts 238°
2026-04-23 05:21 55.86504 -174.60975 35232 ft 484 kts 238°
2026-04-23 05:22 55.83135 -174.71362 35232 ft 484 kts 238°
2026-04-23 05:22 55.79761 -174.81727 35237 ft 484 kts 238°
2026-04-23 05:23 55.76376 -174.92085 35242 ft 484 kts 238°
2026-04-23 05:23 55.72985 -175.02415 35242 ft 484 kts 238°
2026-04-23 05:24 55.69580 -175.12734 35243 ft 485 kts 238°
2026-04-23 05:24 55.66744 -175.21300 35242 ft 485 kts 239°
2026-04-23 05:25 55.62762 -175.33275 35241 ft 486 kts 238°
2026-04-23 05:25 55.59322 -175.43576 35242 ft 487 kts 238°
2026-04-23 05:26 55.56450 -175.52138 35240 ft 487 kts 238°
2026-04-23 05:26 55.52979 -175.62441 35251 ft 488 kts 238°
2026-04-23 05:27 55.49495 -175.72747 35252 ft 488 kts 238°
2026-04-23 05:27 55.46007 -175.83023 35249 ft 488 kts 238°
2026-04-23 05:28 55.42513 -175.93272 35249 ft 488 kts 238°
2026-04-23 05:28 55.39006 -176.03515 35250 ft 488 kts 238°
2026-04-23 05:29 55.35495 -176.13727 35250 ft 489 kts 238°
2026-04-23 05:29 55.31970 -176.23934 35250 ft 488 kts 238°
2026-04-23 05:30 55.28441 -176.34111 35252 ft 488 kts 238°
2026-04-23 05:30 55.24905 -176.44271 35264 ft 488 kts 238°
2026-04-23 05:31 55.21359 -176.54411 35264 ft 487 kts 238°
2026-04-23 05:31 55.17816 -176.64502 35260 ft 486 kts 238°
2026-04-23 05:32 55.14289 -176.74509 35260 ft 487 kts 238°
2026-04-23 05:32 55.10729 -176.84564 35266 ft 487 kts 238°
2026-04-23 05:33 55.07157 -176.94615 35268 ft 487 kts 238°
2026-04-23 05:33 55.03578 -177.04640 35263 ft 486 kts 238°
2026-04-23 05:34 54.99986 -177.14666 35259 ft 487 kts 238°
2026-04-23 05:34 54.96417 -177.24586 35253 ft 486 kts 238°
2026-04-23 05:35 54.92817 -177.34543 35269 ft 486 kts 238°
2026-04-23 05:35 54.89210 -177.44488 35270 ft 486 kts 238°
2026-04-23 05:36 54.85590 -177.54425 35276 ft 487 kts 238°
2026-04-23 05:36 54.81963 -177.64347 35268 ft 487 kts 238°
2026-04-23 05:37 54.78329 -177.74246 35278 ft 487 kts 238°
2026-04-23 05:37 54.74687 -177.84130 35274 ft 486 kts 238°
2026-04-23 05:38 54.71042 -177.93983 35265 ft 486 kts 238°
2026-04-23 05:38 54.67383 -178.03828 35272 ft 486 kts 238°
2026-04-23 05:39 54.64423 -178.14196 35267 ft 484 kts 253°
2026-04-23 05:39 54.62915 -178.25482 35272 ft 483 kts 260°
2026-04-23 05:40 54.61754 -178.36903 35258 ft 483 kts 261°
2026-04-23 05:40 54.60624 -178.48342 35264 ft 483 kts 261°
2026-04-23 05:41 54.59459 -178.59760 35275 ft 483 kts 260°
2026-04-23 05:41 54.58260 -178.71171 35261 ft 483 kts 260°
2026-04-23 05:42 54.57055 -178.82494 35273 ft 483 kts 260°
2026-04-23 05:42 54.55830 -178.93880 35264 ft 482 kts 260°
2026-04-23 05:43 54.54599 -179.05243 35268 ft 482 kts 260°
2026-04-23 05:43 54.53358 -179.16588 35264 ft 482 kts 260°
2026-04-23 05:44 54.52111 -179.27919 35277 ft 481 kts 260°
2026-04-23 05:44 54.50853 -179.39231 35266 ft 480 kts 260°
2026-04-23 05:45 54.49585 -179.50507 35266 ft 479 kts 260°
2026-04-23 05:45 54.48315 -179.61762 35278 ft 479 kts 260°
2026-04-23 05:46 54.47031 -179.72998 35272 ft 478 kts 260°
2026-04-23 05:46 54.45746 -179.84142 35269 ft 479 kts 260°
2026-04-23 05:47 54.44442 -179.95360 35272 ft 478 kts 260°
2026-04-23 05:47 54.43126 179.93440 35288 ft 477 kts 260°
2026-04-23 05:48 54.41804 179.82284 35408 ft 476 kts 260°
2026-04-23 05:48 54.40473 179.71124 35544 ft 477 kts 260°
2026-04-23 05:49 54.39137 179.59964 35608 ft 477 kts 259°
2026-04-23 05:49 54.37794 179.48885 35607 ft 477 kts 259°
2026-04-23 05:50 54.36428 179.37732 35607 ft 478 kts 259°
2026-04-23 05:50 54.35055 179.26558 35608 ft 479 kts 259°
2026-04-23 05:51 54.33666 179.15412 35605 ft 478 kts 259°
2026-04-23 05:51 54.32271 179.04286 35599 ft 477 kts 259°
2026-04-23 05:52 54.30866 178.93162 35599 ft 478 kts 259°
2026-04-23 05:52 54.29458 178.82112 35600 ft 477 kts 259°
2026-04-23 05:53 54.28035 178.71023 35598 ft 477 kts 259°
2026-04-23 05:53 54.26605 178.59942 35598 ft 476 kts 259°
2026-04-23 05:54 54.25164 178.48876 35599 ft 476 kts 259°
2026-04-23 05:54 54.23716 178.37845 35590 ft 474 kts 259°
2026-04-23 05:55 54.22265 178.26840 35590 ft 473 kts 259°
2026-04-23 05:55 54.20894 178.15914 35589 ft 473 kts 260°
2026-04-23 05:56 54.19534 178.04918 35590 ft 473 kts 259°
2026-04-23 05:56 54.18152 177.93925 35590 ft 472 kts 259°
2026-04-23 05:57 54.16762 177.82976 35590 ft 472 kts 259°
2026-04-23 05:57 54.15355 177.72023 35590 ft 473 kts 259°
2026-04-23 05:58 54.13945 177.61139 35590 ft 473 kts 259°
2026-04-23 05:58 54.12515 177.50186 35597 ft 473 kts 259°
2026-04-23 05:59 54.11073 177.39226 35599 ft 473 kts 259°
2026-04-23 05:59 54.09620 177.28276 35599 ft 474 kts 259°
2026-04-23 06:00 54.08160 177.17328 35599 ft 474 kts 258°
2026-04-23 06:00 54.06686 177.06356 35599 ft 475 kts 258°
2026-04-23 06:01 54.05202 176.95407 35589 ft 474 kts 258°
2026-04-23 06:01 54.03710 176.84474 35589 ft 475 kts 258°
2026-04-23 06:02 54.02205 176.73526 35589 ft 474 kts 258°
2026-04-23 06:02 54.00692 176.62602 35589 ft 475 kts 258°
2026-04-23 06:03 53.99180 176.51757 35590 ft 475 kts 258°
2026-04-23 06:03 53.97649 176.40873 35590 ft 472 kts 257°
2026-04-23 06:04 53.96114 176.30030 35590 ft 472 kts 257°
2026-04-23 06:04 53.94566 176.19176 35589 ft 472 kts 257°
2026-04-23 06:05 53.93010 176.08340 35590 ft 473 kts 257°
2026-04-23 06:05 53.91445 175.97511 35585 ft 473 kts 257°
2026-04-23 06:06 53.89871 175.86690 35580 ft 473 kts 257°
2026-04-23 06:06 53.88286 175.75868 35580 ft 473 kts 257°
2026-04-23 06:07 53.86700 175.65133 35580 ft 472 kts 257°
2026-04-23 06:07 53.85094 175.54344 35580 ft 472 kts 257°
2026-04-23 06:08 53.83481 175.43557 35580 ft 472 kts 257°
2026-04-23 06:08 53.81860 175.32783 35580 ft 471 kts 256°
2026-04-23 06:09 53.80232 175.22038 35580 ft 471 kts 256°
2026-04-23 06:09 53.78592 175.11293 35580 ft 472 kts 256°
2026-04-23 06:10 53.76941 175.00560 35580 ft 471 kts 256°
2026-04-23 06:10 53.75283 174.89842 35580 ft 471 kts 256°
2026-04-23 06:11 53.73618 174.79136 35580 ft 471 kts 256°
2026-04-23 06:11 53.71945 174.68443 35580 ft 471 kts 256°
2026-04-23 06:12 53.70543 174.59556 35580 ft 471 kts 255°
2026-04-23 06:12 53.67997 174.43539 35580 ft 471 kts 255°
2026-04-23 06:13 53.66291 174.32880 35580 ft 471 kts 255°
2026-04-23 06:13 53.64572 174.22206 35580 ft 472 kts 255°
2026-04-23 06:14 53.62840 174.11528 35581 ft 472 kts 254°
2026-04-23 06:14 53.61110 174.00920 35582 ft 472 kts 254°
2026-04-23 06:15 53.59361 173.90260 35580 ft 472 kts 254°
2026-04-23 06:15 53.57600 173.79612 35580 ft 472 kts 254°
2026-04-23 06:16 53.55830 173.68964 35580 ft 472 kts 254°
2026-04-23 06:16 53.54052 173.58330 35580 ft 472 kts 254°
2026-04-23 06:17 53.52286 173.47688 35580 ft 472 kts 255°
2026-04-23 06:17 53.50597 173.37087 35587 ft 472 kts 255°
2026-04-23 06:18 53.48893 173.26433 35590 ft 472 kts 255°
2026-04-23 06:18 53.47169 173.15793 35590 ft 472 kts 255°
2026-04-23 06:19 53.45432 173.05170 35590 ft 472 kts 254°
2026-04-23 06:19 53.43693 172.94609 35589 ft 472 kts 254°
2026-04-23 06:20 53.41937 172.84013 35590 ft 472 kts 254°
2026-04-23 06:20 53.40171 172.73410 35589 ft 472 kts 254°
2026-04-23 06:21 53.38396 172.62812 35589 ft 473 kts 254°
2026-04-23 06:21 53.36605 172.52195 35589 ft 473 kts 254°
2026-04-23 06:22 53.34804 172.41592 35589 ft 473 kts 254°
2026-04-23 06:22 53.33009 172.31073 35590 ft 473 kts 254°
2026-04-23 06:23 53.31185 172.20467 35589 ft 473 kts 253°
2026-04-23 06:23 53.29359 172.09897 35589 ft 473 kts 253°
2026-04-23 06:24 53.27521 171.99329 35590 ft 473 kts 253°
2026-04-23 06:24 53.25674 171.88778 35589 ft 473 kts 253°
2026-04-23 06:25 53.23818 171.78226 35590 ft 473 kts 253°
2026-04-23 06:25 53.21953 171.67682 35598 ft 473 kts 253°
2026-04-23 06:26 53.20091 171.57210 35598 ft 474 kts 253°
2026-04-23 06:26 53.18203 171.46668 35598 ft 473 kts 253°
2026-04-23 06:27 53.16306 171.36149 35598 ft 473 kts 253°
2026-04-23 06:27 53.14404 171.25645 35599 ft 474 kts 253°
2026-04-23 06:28 53.12502 171.15199 35598 ft 474 kts 253°
2026-04-23 06:28 53.10578 171.04694 35599 ft 474 kts 253°
2026-04-23 06:29 53.08647 170.94209 35599 ft 474 kts 253°
2026-04-23 06:29 53.06718 170.83796 35609 ft 474 kts 253°
2026-04-23 06:30 53.04766 170.73319 35609 ft 474 kts 253°
2026-04-23 06:30 53.02805 170.62860 35607 ft 474 kts 253°
2026-04-23 06:31 53.00834 170.52410 35609 ft 474 kts 252°
2026-04-23 06:31 52.98857 170.41973 35609 ft 474 kts 252°
2026-04-23 06:32 52.96888 170.31619 35608 ft 474 kts 252°
2026-04-23 06:32 52.94891 170.21202 35616 ft 474 kts 252°
2026-04-23 06:33 52.92905 170.10770 35617 ft 474 kts 253°
2026-04-23 06:33 52.91077 170.00283 35616 ft 474 kts 254°
2026-04-23 06:34 52.89276 169.89765 35618 ft 474 kts 254°
2026-04-23 06:34 52.87445 169.79271 35617 ft 474 kts 254°
2026-04-23 06:35 52.85589 169.68798 35626 ft 474 kts 253°
2026-04-23 06:35 52.83719 169.58333 35627 ft 474 kts 253°
2026-04-23 06:36 52.81839 169.47873 35625 ft 474 kts 253°
2026-04-23 06:36 52.79949 169.37411 35617 ft 474 kts 253°
2026-04-23 06:37 52.78053 169.26971 35618 ft 474 kts 253°
2026-04-23 06:37 52.76162 169.16614 35618 ft 474 kts 253°
2026-04-23 06:38 52.74243 169.06167 35626 ft 474 kts 253°
2026-04-23 06:38 52.72315 168.95747 35626 ft 474 kts 253°
2026-04-23 06:39 52.70384 168.85339 35631 ft 474 kts 253°
2026-04-23 06:39 52.68444 168.74944 35623 ft 474 kts 253°
2026-04-23 06:40 52.66491 168.64560 35630 ft 474 kts 253°
2026-04-23 06:40 52.64544 168.54244 35640 ft 475 kts 253°
2026-04-23 06:41 52.62574 168.43864 35634 ft 475 kts 253°
2026-04-23 06:41 52.60594 168.33500 35642 ft 475 kts 253°
2026-04-23 06:42 52.58602 168.23134 35632 ft 474 kts 252°
2026-04-23 06:42 52.56608 168.12802 35643 ft 474 kts 252°
2026-04-23 06:43 52.54603 168.02475 35645 ft 475 kts 252°
2026-04-23 06:43 52.52583 167.92135 35650 ft 475 kts 252°
2026-04-23 06:44 52.50557 167.81820 35647 ft 475 kts 252°
2026-04-23 06:44 52.48525 167.71510 35654 ft 475 kts 252°
2026-04-23 06:45 52.46485 167.61222 35654 ft 475 kts 252°
2026-04-23 06:45 52.44445 167.50989 35659 ft 475 kts 252°
2026-04-23 06:46 52.42385 167.40709 35655 ft 474 kts 252°
2026-04-23 06:46 52.40315 167.30434 35665 ft 475 kts 252°
2026-04-23 06:47 52.38233 167.20153 35664 ft 476 kts 252°
2026-04-23 06:47 52.36141 167.09879 35665 ft 476 kts 252°
2026-04-23 06:48 52.34056 166.99685 35668 ft 475 kts 252°
2026-04-23 06:48 52.31947 166.89430 35673 ft 476 kts 252°
2026-04-23 06:49 52.29825 166.79172 35674 ft 477 kts 252°
2026-04-23 06:49 52.27690 166.68912 35673 ft 476 kts 252°
2026-04-23 06:50 52.25551 166.58673 35683 ft 477 kts 251°
2026-04-23 06:50 52.23399 166.48415 35683 ft 477 kts 251°
2026-04-23 06:51 52.21239 166.38176 35682 ft 477 kts 251°
2026-04-23 06:51 52.19070 166.27944 35688 ft 477 kts 251°
2026-04-23 06:52 52.16903 166.17790 35693 ft 477 kts 251°
2026-04-23 06:52 52.14717 166.07581 35692 ft 478 kts 251°
2026-04-23 06:53 52.12521 165.97375 35692 ft 477 kts 251°
2026-04-23 06:53 52.10315 165.87186 35698 ft 477 kts 251°
2026-04-23 06:54 52.08102 165.77010 35702 ft 477 kts 251°
2026-04-23 06:54 52.05879 165.66834 35701 ft 478 kts 251°
2026-04-23 06:55 52.03660 165.56732 35701 ft 477 kts 251°
2026-04-23 06:55 52.01417 165.46579 35708 ft 477 kts 251°
2026-04-23 06:56 51.99167 165.36432 35712 ft 478 kts 251°
2026-04-23 06:56 51.96904 165.26283 35712 ft 478 kts 250°
2026-04-23 06:57 51.94634 165.16150 35711 ft 478 kts 250°
2026-04-23 06:57 51.92349 165.06004 35710 ft 479 kts 250°
2026-04-23 06:58 51.90072 164.95930 35720 ft 479 kts 250°
2026-04-23 06:58 51.87773 164.85806 35722 ft 480 kts 250°
2026-04-23 06:59 51.85459 164.75675 35725 ft 480 kts 250°
2026-04-23 06:59 51.83135 164.65545 35722 ft 480 kts 250°
2026-04-23 07:00 51.80801 164.55418 35719 ft 481 kts 250°
2026-04-23 07:00 51.78850 164.46994 35731 ft 481 kts 250°
2026-04-23 07:01 51.76496 164.36874 35731 ft 481 kts 250°
2026-04-23 07:01 51.74135 164.26758 35731 ft 481 kts 250°
2026-04-23 07:02 51.71759 164.16639 35730 ft 482 kts 250°
2026-04-23 07:02 51.69389 164.06592 35729 ft 482 kts 250°
2026-04-23 07:03 51.66997 163.96492 35735 ft 483 kts 250°
2026-04-23 07:03 51.64590 163.86381 35739 ft 482 kts 250°
2026-04-23 07:04 51.62175 163.76284 35740 ft 482 kts 250°
2026-04-23 07:04 51.59245 163.66655 35740 ft 484 kts 240°
2026-04-23 07:05 51.55671 163.57471 35737 ft 484 kts 238°
2026-04-23 07:05 51.51996 163.48403 35737 ft 484 kts 238°
2026-04-23 07:06 51.48315 163.39353 35740 ft 484 kts 238°
2026-04-23 07:06 51.44640 163.30302 35746 ft 484 kts 238°
2026-04-23 07:07 51.40957 163.21252 35748 ft 484 kts 238°
2026-04-23 07:07 51.37277 163.12227 35747 ft 484 kts 238°
2026-04-23 07:08 51.33587 163.03217 35749 ft 484 kts 238°
2026-04-23 07:08 51.29893 162.94221 35749 ft 484 kts 237°
2026-04-23 07:09 51.26184 162.85225 35748 ft 484 kts 237°
2026-04-23 07:09 51.22467 162.76245 35749 ft 484 kts 237°
2026-04-23 07:10 51.18775 162.67357 35749 ft 484 kts 237°
2026-04-23 07:10 51.15048 162.58408 35749 ft 485 kts 237°
2026-04-23 07:11 51.11309 162.49451 35746 ft 485 kts 237°
2026-04-23 07:12 51.05685 162.36057 35749 ft 485 kts 237°
2026-04-23 07:12 51.01949 162.27203 35755 ft 485 kts 237°
2026-04-23 07:13 50.98186 162.18314 35757 ft 485 kts 237°
2026-04-23 07:13 50.94417 162.09433 35758 ft 485 kts 237°
2026-04-23 07:14 50.90645 162.00573 35756 ft 485 kts 237°
2026-04-23 07:14 50.86858 161.91713 35757 ft 486 kts 237°
2026-04-23 07:15 50.83059 161.82857 35757 ft 486 kts 236°
2026-04-23 07:15 50.79253 161.74011 35760 ft 487 kts 236°
2026-04-23 07:16 50.75464 161.65242 35756 ft 486 kts 236°
2026-04-23 07:16 50.71642 161.56417 35758 ft 486 kts 236°
2026-04-23 07:17 50.67815 161.47615 35756 ft 486 kts 236°
2026-04-23 07:17 50.63981 161.38826 35755 ft 486 kts 236°
2026-04-23 07:18 50.60148 161.30058 35760 ft 486 kts 236°
2026-04-23 07:18 50.56298 161.21289 35755 ft 487 kts 236°
2026-04-23 07:19 50.52463 161.12594 35767 ft 487 kts 236°
2026-04-23 07:19 50.48600 161.03857 35765 ft 487 kts 236°
2026-04-23 07:20 50.44730 160.95120 35763 ft 487 kts 236°
2026-04-23 07:20 50.40848 160.86396 35764 ft 487 kts 236°
2026-04-23 07:21 50.36960 160.77688 35767 ft 487 kts 236°
2026-04-23 07:21 50.33065 160.68997 35769 ft 488 kts 235°
2026-04-23 07:22 50.29153 160.60293 35767 ft 488 kts 235°
2026-04-23 07:22 50.25242 160.51616 35770 ft 488 kts 235°
2026-04-23 07:23 50.21325 160.42957 35768 ft 487 kts 235°
2026-04-23 07:23 50.17423 160.34376 35770 ft 487 kts 235°
2026-04-23 07:24 50.13482 160.25763 35770 ft 488 kts 235°
2026-04-23 07:24 50.09530 160.17159 35766 ft 488 kts 235°
2026-04-23 07:25 50.05580 160.08585 35770 ft 487 kts 234°
2026-04-23 07:25 50.01623 160.00021 35770 ft 487 kts 234°
2026-04-23 07:26 49.97663 159.91483 35770 ft 487 kts 234°
2026-04-23 07:26 49.93691 159.82940 35766 ft 487 kts 234°
2026-04-23 07:27 49.89719 159.74420 35764 ft 487 kts 234°
2026-04-23 07:27 49.85768 159.65970 35767 ft 487 kts 234°
2026-04-23 07:28 49.81785 159.57493 35762 ft 486 kts 234°
2026-04-23 07:28 49.77794 159.49031 35766 ft 486 kts 234°
2026-04-23 07:29 49.73805 159.40596 35767 ft 485 kts 234°
2026-04-23 07:29 49.69818 159.32189 35770 ft 485 kts 234°
2026-04-23 07:30 49.65761 159.23867 35765 ft 484 kts 233°
2026-04-23 07:30 49.61676 159.15599 35766 ft 484 kts 233°
2026-04-23 07:31 49.57625 159.07405 35764 ft 484 kts 233°
2026-04-23 07:31 49.53548 158.99155 35770 ft 484 kts 233°
2026-04-23 07:32 49.49467 158.90914 35768 ft 484 kts 233°
2026-04-23 07:32 49.45378 158.82684 35763 ft 484 kts 233°
2026-04-23 07:33 49.41280 158.74464 35785 ft 484 kts 233°
2026-04-23 07:33 49.37207 158.66318 35771 ft 484 kts 233°
2026-04-23 07:34 49.33096 158.58123 35769 ft 484 kts 233°
2026-04-23 07:34 49.28980 158.49941 35779 ft 484 kts 233°
2026-04-23 07:35 49.24867 158.41784 35780 ft 484 kts 233°
2026-04-23 07:35 49.20746 158.33646 35813 ft 483 kts 233°
2026-04-23 07:36 49.16620 158.25523 35818 ft 483 kts 233°
2026-04-23 07:36 49.12523 158.17480 35822 ft 483 kts 233°
2026-04-23 07:37 49.08388 158.09388 35822 ft 482 kts 233°
2026-04-23 07:37 49.04252 158.01319 35822 ft 482 kts 233°
2026-04-23 07:38 49.00117 157.93276 35823 ft 482 kts 233°
2026-04-23 07:38 48.95975 157.85236 35822 ft 482 kts 233°
2026-04-23 07:39 48.91857 157.77268 35823 ft 481 kts 233°
2026-04-23 07:39 48.87713 157.69279 35822 ft 481 kts 233°
2026-04-23 07:40 48.83570 157.61314 35821 ft 480 kts 233°
2026-04-23 07:40 48.79418 157.53352 35822 ft 480 kts 233°
2026-04-23 07:41 48.75265 157.45416 35823 ft 480 kts 233°
2026-04-23 07:41 48.71105 157.37493 35829 ft 480 kts 233°
2026-04-23 07:42 48.66969 157.29632 35832 ft 480 kts 233°
2026-04-23 07:42 48.62800 157.21733 35833 ft 480 kts 233°
2026-04-23 07:43 48.58626 157.13853 35833 ft 480 kts 232°
2026-04-23 07:43 48.54446 157.05991 35834 ft 480 kts 232°
2026-04-23 07:44 48.50264 156.98139 35832 ft 480 kts 232°
2026-04-23 07:44 48.46080 156.90301 35833 ft 480 kts 232°
2026-04-23 07:45 48.41892 156.82481 35829 ft 480 kts 232°
2026-04-23 07:45 48.37690 156.74659 35834 ft 480 kts 232°
2026-04-23 07:46 48.33485 156.66857 35840 ft 480 kts 232°
2026-04-23 07:46 48.29306 156.59120 35843 ft 480 kts 232°
2026-04-23 07:47 48.25095 156.51347 35839 ft 480 kts 232°
2026-04-23 07:47 48.20871 156.43578 35843 ft 480 kts 232°
2026-04-23 07:48 48.16647 156.35826 35839 ft 479 kts 232°
2026-04-23 07:48 48.12425 156.28101 35841 ft 479 kts 232°
2026-04-23 07:49 48.08202 156.20394 35842 ft 479 kts 232°
2026-04-23 07:49 48.03973 156.12707 35842 ft 478 kts 232°
2026-04-23 07:50 48.00452 156.06324 35850 ft 478 kts 232°
2026-04-23 07:50 47.95527 155.97415 35855 ft 478 kts 232°
2026-04-23 07:51 47.91970 155.90996 35857 ft 478 kts 232°
2026-04-23 07:51 47.87756 155.83411 35846 ft 478 kts 232°
2026-04-23 07:52 47.83501 155.75781 35854 ft 478 kts 232°
2026-04-23 07:52 47.79254 155.68184 35851 ft 477 kts 232°
2026-04-23 07:53 47.75006 155.60606 35850 ft 477 kts 232°
2026-04-23 07:53 47.70757 155.53051 35853 ft 476 kts 232°
2026-04-23 07:54 47.66509 155.45512 35856 ft 475 kts 232°
2026-04-23 07:54 47.62263 155.38001 35858 ft 475 kts 232°
2026-04-23 07:55 47.58023 155.30518 35861 ft 474 kts 232°
2026-04-23 07:55 47.53818 155.23119 35860 ft 472 kts 232°
2026-04-23 07:56 47.49587 155.15696 35865 ft 471 kts 232°
2026-04-23 07:56 47.45353 155.08291 35864 ft 471 kts 232°
2026-04-23 07:57 47.41123 155.00909 35867 ft 471 kts 232°
2026-04-23 07:57 47.36906 154.93571 35873 ft 470 kts 232°
2026-04-23 07:58 47.32676 154.86227 35864 ft 470 kts 232°
2026-04-23 07:58 47.28438 154.78892 35882 ft 470 kts 232°
2026-04-23 07:59 47.24199 154.71582 35880 ft 469 kts 232°
2026-04-23 07:59 47.19958 154.64277 35875 ft 469 kts 232°
2026-04-23 08:00 47.15724 154.57007 35879 ft 468 kts 232°
2026-04-23 08:00 47.11484 154.49747 35881 ft 468 kts 232°
2026-04-23 08:01 47.07241 154.42501 35882 ft 467 kts 232°
2026-04-23 08:01 47.03000 154.35278 35884 ft 467 kts 232°
2026-04-23 08:02 46.98788 154.28122 35888 ft 466 kts 232°
2026-04-23 08:02 46.94552 154.20949 35888 ft 465 kts 233°
2026-04-23 08:03 46.90321 154.13800 35887 ft 464 kts 233°
2026-04-23 08:03 46.86099 154.06682 35887 ft 463 kts 233°
2026-04-23 08:04 46.81876 153.99584 35888 ft 462 kts 233°
2026-04-23 08:04 46.77661 153.92518 35887 ft 461 kts 233°
2026-04-23 08:05 46.73446 153.85469 35888 ft 461 kts 233°
2026-04-23 08:05 46.69234 153.78441 35896 ft 460 kts 233°
2026-04-23 08:06 46.65022 153.71433 35897 ft 459 kts 233°
2026-04-23 08:06 46.60833 153.64487 35897 ft 459 kts 233°
2026-04-23 08:07 46.56623 153.57520 35897 ft 458 kts 233°
2026-04-23 08:07 46.52421 153.50582 35897 ft 457 kts 233°
2026-04-23 08:08 46.48215 153.43654 35897 ft 457 kts 233°
2026-04-23 08:08 46.44004 153.36740 35897 ft 457 kts 233°
2026-04-23 08:09 46.39783 153.29823 35897 ft 457 kts 233°
2026-04-23 08:09 46.35559 153.22923 35905 ft 458 kts 233°
2026-04-23 08:10 46.31336 153.16035 35906 ft 458 kts 233°
2026-04-23 08:10 46.24981 153.05707 35906 ft 458 kts 233°
2026-04-23 08:11 46.20765 152.98884 35906 ft 458 kts 233°
2026-04-23 08:11 46.16497 152.92051 35906 ft 458 kts 232°
2026-04-23 08:12 46.12225 152.85264 35906 ft 457 kts 232°
2026-04-23 08:12 46.07957 152.78487 35912 ft 456 kts 232°
2026-04-23 08:13 46.03688 152.71720 35915 ft 456 kts 232°
2026-04-23 08:13 45.99424 152.64970 35915 ft 455 kts 232°
2026-04-23 08:14 45.95164 152.58252 35914 ft 451 kts 233°
2026-04-23 08:14 45.90946 152.51622 35925 ft 447 kts 233°
2026-04-23 08:15 45.86749 152.45025 35926 ft 447 kts 233°
2026-04-23 08:15 45.82572 152.38473 35925 ft 448 kts 233°
2026-04-23 08:16 45.78350 152.31875 35925 ft 449 kts 233°
2026-04-23 08:16 45.74126 152.25293 35924 ft 449 kts 233°
2026-04-23 08:17 45.69892 152.18711 35926 ft 449 kts 233°
2026-04-23 08:17 45.65649 152.12127 35926 ft 450 kts 233°
2026-04-23 08:18 45.61407 152.05559 35926 ft 449 kts 233°
2026-04-23 08:18 45.57194 151.99055 35927 ft 448 kts 233°
2026-04-23 08:19 45.52955 151.92527 35923 ft 448 kts 233°
2026-04-23 08:19 45.48719 151.86021 35924 ft 446 kts 233°
2026-04-23 08:20 45.44498 151.79551 35927 ft 445 kts 233°
2026-04-23 08:20 45.40291 151.73115 35935 ft 443 kts 233°
2026-04-23 08:21 45.36122 151.66753 35931 ft 441 kts 233°
2026-04-23 08:21 45.31944 151.60392 35936 ft 440 kts 233°
2026-04-23 08:22 45.27773 151.54059 35935 ft 438 kts 233°
2026-04-23 08:22 45.23616 151.47765 35931 ft 436 kts 233°
2026-04-23 08:23 45.19474 151.41502 35937 ft 434 kts 234°
2026-04-23 08:23 45.15345 151.35269 35936 ft 433 kts 234°
2026-04-23 08:24 45.11224 151.29065 35939 ft 431 kts 234°
2026-04-23 08:24 45.07114 151.22894 35934 ft 429 kts 234°
2026-04-23 08:25 45.03048 151.16802 35937 ft 428 kts 234°
2026-04-23 08:25 44.98965 151.10698 35934 ft 426 kts 234°
2026-04-23 08:26 44.94883 151.04611 35936 ft 426 kts 234°
2026-04-23 08:26 44.90815 150.98555 35933 ft 425 kts 234°
2026-04-23 08:27 44.86749 150.92520 35940 ft 424 kts 234°
2026-04-23 08:27 44.82693 150.86508 35932 ft 423 kts 234°
2026-04-23 08:28 44.78667 150.80555 35933 ft 421 kts 234°
2026-04-23 08:28 44.74630 150.74599 35931 ft 420 kts 234°
2026-04-23 08:29 44.70603 150.68671 35933 ft 418 kts 234°
2026-04-23 08:29 44.66584 150.62770 35933 ft 416 kts 234°
2026-04-23 08:30 44.62582 150.56904 35932 ft 415 kts 234°
2026-04-23 08:30 44.58598 150.51078 35943 ft 413 kts 235°
2026-04-23 08:31 44.54630 150.45284 35943 ft 411 kts 235°
2026-04-23 08:31 44.50674 150.39520 35943 ft 409 kts 235°
2026-04-23 08:32 44.46732 150.33787 35924 ft 407 kts 235°
2026-04-23 08:32 44.42833 150.28131 35923 ft 406 kts 235°
2026-04-23 08:33 44.38912 150.22447 35924 ft 411 kts 235°
2026-04-23 08:33 44.34899 150.16629 35922 ft 418 kts 235°
2026-04-23 08:34 44.30855 150.10810 35927 ft 417 kts 235°
2026-04-23 08:34 44.26810 150.05006 35926 ft 416 kts 235°
2026-04-23 08:35 44.22788 149.99230 35924 ft 414 kts 235°
2026-04-23 08:35 44.18764 149.93464 35926 ft 414 kts 235°
2026-04-23 08:36 44.14774 149.87761 35927 ft 413 kts 235°
2026-04-23 08:36 44.10753 149.82024 35926 ft 413 kts 235°
2026-04-23 08:37 44.06734 149.76303 35924 ft 413 kts 235°
2026-04-23 08:37 44.02703 149.70574 35926 ft 414 kts 235°
2026-04-23 08:38 43.98666 149.64850 35934 ft 415 kts 235°
2026-04-23 08:38 43.95316 149.60112 35932 ft 413 kts 235°
2026-04-23 08:39 43.91294 149.54432 35938 ft 412 kts 235°
2026-04-23 08:39 43.87277 149.48767 35937 ft 412 kts 235°
2026-04-23 08:40 43.83255 149.43114 35935 ft 411 kts 235°
2026-04-23 08:40 43.79239 149.37476 35934 ft 411 kts 235°
2026-04-23 08:41 43.75222 149.31844 35936 ft 411 kts 235°
2026-04-23 08:41 43.71239 149.26277 35934 ft 409 kts 235°
2026-04-23 08:42 43.67237 149.20693 35933 ft 409 kts 235°
2026-04-23 08:42 43.63236 149.15122 35931 ft 408 kts 235°
2026-04-23 08:43 43.59238 149.09565 35933 ft 408 kts 235°
2026-04-23 08:43 43.55234 149.04013 35931 ft 407 kts 235°
2026-04-23 08:44 43.51234 148.98475 35932 ft 407 kts 235°
2026-04-23 08:44 43.47256 148.92978 35931 ft 407 kts 235°
2026-04-23 08:45 43.43255 148.87461 35935 ft 407 kts 235°
2026-04-23 08:45 43.39249 148.81947 35932 ft 407 kts 235°
2026-04-23 08:46 43.35250 148.76457 35933 ft 406 kts 235°
2026-04-23 08:46 43.31249 148.70974 35934 ft 406 kts 235°
2026-04-23 08:47 43.27250 148.65504 35938 ft 406 kts 235°
2026-04-23 08:47 43.23244 148.60035 35931 ft 405 kts 235°
2026-04-23 08:48 43.19279 148.54632 35933 ft 404 kts 234°
2026-04-23 08:48 43.15283 148.49198 35932 ft 404 kts 234°
2026-04-23 08:49 43.11295 148.43787 35937 ft 404 kts 234°
2026-04-23 08:49 43.07306 148.38384 35936 ft 403 kts 234°
2026-04-23 08:50 43.03318 148.32990 35934 ft 403 kts 234°
2026-04-23 08:50 42.99338 148.27620 35939 ft 402 kts 234°
2026-04-23 08:51 42.95359 148.22267 35934 ft 400 kts 234°
2026-04-23 08:51 42.91415 148.16967 35937 ft 400 kts 234°
2026-04-23 08:52 42.87451 148.11648 35935 ft 399 kts 234°
2026-04-23 08:52 42.83495 148.06348 35932 ft 398 kts 234°
2026-04-23 08:53 42.79536 148.01056 35934 ft 398 kts 234°
2026-04-23 08:53 42.75584 147.95782 35944 ft 397 kts 234°
2026-04-23 08:54 42.71637 147.90529 35944 ft 396 kts 234°
2026-04-23 08:54 42.67691 147.85287 35943 ft 396 kts 234°
2026-04-23 08:55 42.63759 147.80070 35943 ft 395 kts 234°
2026-04-23 08:55 42.59826 147.74858 35943 ft 395 kts 234°
2026-04-23 08:56 42.55917 147.69692 35943 ft 395 kts 234°
2026-04-23 08:56 42.51984 147.64505 35943 ft 394 kts 234°
2026-04-23 08:57 42.48052 147.59331 35943 ft 394 kts 234°
2026-04-23 08:57 42.44120 147.54161 35943 ft 394 kts 234°
2026-04-23 08:58 42.40182 147.48991 35943 ft 394 kts 234°
2026-04-23 08:58 42.36245 147.43834 35943 ft 394 kts 234°
2026-04-23 08:59 42.32331 147.38707 35943 ft 394 kts 234°
2026-04-23 08:59 42.28388 147.33552 35943 ft 394 kts 234°
2026-04-23 09:00 42.24449 147.28404 35943 ft 394 kts 234°
2026-04-23 09:00 42.20495 147.23255 35944 ft 395 kts 234°
2026-04-23 09:01 42.16543 147.18119 35943 ft 395 kts 234°
2026-04-23 09:01 42.12585 147.12986 35944 ft 395 kts 234°
2026-04-23 09:02 42.08629 147.07862 35944 ft 394 kts 234°
2026-04-23 09:02 42.04697 147.02782 35943 ft 394 kts 234°
2026-04-23 09:03 42.00741 146.97676 35943 ft 394 kts 234°
2026-04-23 09:03 41.96791 146.92589 35943 ft 392 kts 234°
2026-04-23 09:04 41.92851 146.87527 35943 ft 390 kts 234°
2026-04-23 09:04 41.88957 146.82519 35943 ft 390 kts 234°
2026-04-23 09:05 41.85044 146.77489 35944 ft 390 kts 234°
2026-04-23 09:05 41.81125 146.72463 35943 ft 390 kts 233°
2026-04-23 09:06 41.77204 146.67449 35943 ft 389 kts 233°
2026-04-23 09:06 41.73288 146.62447 35944 ft 389 kts 233°
2026-04-23 09:07 41.69403 146.57493 35952 ft 386 kts 233°
2026-04-23 09:07 41.65497 146.52519 35952 ft 388 kts 233°
2026-04-23 09:08 41.61578 146.47538 35952 ft 389 kts 233°
2026-04-23 09:08 41.57648 146.42555 35953 ft 389 kts 233°
2026-04-23 09:09 41.53721 146.37583 35953 ft 389 kts 233°
2026-04-23 09:09 41.49795 146.32621 35953 ft 389 kts 233°
2026-04-23 09:10 41.43897 146.25188 35953 ft 389 kts 233°
2026-04-23 09:11 41.39961 146.20233 35952 ft 389 kts 233°
2026-04-23 09:11 41.36037 146.15302 35953 ft 390 kts 233°
2026-04-23 09:12 41.32090 146.10352 35953 ft 390 kts 233°
2026-04-23 09:12 41.28138 146.05406 35953 ft 390 kts 233°
2026-04-23 09:13 41.24183 146.00461 35953 ft 390 kts 233°
2026-04-23 09:13 41.20224 145.95521 35953 ft 391 kts 232°
2026-04-23 09:14 41.16254 145.90574 35952 ft 392 kts 232°
2026-04-23 09:14 41.12289 145.85649 35953 ft 393 kts 231°
2026-04-23 09:15 41.08272 145.80668 35953 ft 394 kts 231°
2026-04-23 09:15 41.04267 145.75705 35953 ft 394 kts 231°
2026-04-23 09:16 41.00260 145.70752 35953 ft 394 kts 231°
2026-04-23 09:16 40.96263 145.65821 35953 ft 395 kts 231°
2026-04-23 09:17 40.92239 145.60862 35953 ft 396 kts 231°
2026-04-23 09:17 40.88204 145.55899 35953 ft 396 kts 231°
2026-04-23 09:18 40.84170 145.50942 35952 ft 397 kts 231°
2026-04-23 09:18 40.80118 145.45976 35953 ft 397 kts 231°
2026-04-23 09:19 40.76069 145.41022 35951 ft 398 kts 231°
2026-04-23 09:19 40.71998 145.36054 35927 ft 398 kts 231°
2026-04-23 09:20 40.67935 145.31099 35927 ft 398 kts 231°
2026-04-23 09:20 40.63866 145.26144 35924 ft 398 kts 231°
2026-04-23 09:21 40.59819 145.21223 35928 ft 399 kts 231°
2026-04-23 09:21 40.55739 145.16273 35925 ft 399 kts 231°
2026-04-23 09:22 40.51652 145.11324 35926 ft 399 kts 230°
2026-04-23 09:22 40.47562 145.06383 35925 ft 399 kts 230°
2026-04-23 09:23 40.43472 145.01448 35925 ft 400 kts 230°
2026-04-23 09:23 40.39374 144.96513 35924 ft 399 kts 230°
2026-04-23 09:24 40.35289 144.91597 35935 ft 399 kts 230°
2026-04-23 09:24 40.31196 144.86681 35933 ft 399 kts 230°
2026-04-23 09:25 40.27788 144.82596 35936 ft 399 kts 230°
2026-04-23 09:25 40.23687 144.77692 35934 ft 400 kts 230°
2026-04-23 09:26 40.19581 144.72781 35936 ft 400 kts 230°
2026-04-23 09:26 40.14805 144.67083 35931 ft 399 kts 230°
2026-04-23 09:27 40.11366 144.62987 35933 ft 399 kts 230°
2026-04-23 09:27 40.07277 144.58126 35934 ft 400 kts 230°
2026-04-23 09:28 40.03162 144.53241 35933 ft 400 kts 230°
2026-04-23 09:28 39.99040 144.48358 35935 ft 400 kts 230°
2026-04-23 09:29 39.94905 144.43469 35932 ft 402 kts 230°
2026-04-23 09:29 39.90751 144.38560 35934 ft 403 kts 230°
2026-04-23 09:30 39.86595 144.33662 35933 ft 402 kts 229°
2026-04-23 09:30 39.82437 144.28772 35944 ft 402 kts 229°
2026-04-23 09:31 39.78284 144.23896 35953 ft 402 kts 229°
2026-04-23 09:31 39.74151 144.19050 35953 ft 402 kts 229°
2026-04-23 09:32 39.70002 144.14188 35953 ft 402 kts 229°
2026-04-23 09:32 39.65846 144.09328 35953 ft 402 kts 229°
2026-04-23 09:33 39.61687 144.04476 35953 ft 402 kts 229°
2026-04-23 09:33 39.57512 143.99613 35953 ft 403 kts 229°
2026-04-23 09:34 39.53336 143.94756 35952 ft 403 kts 229°
2026-04-23 09:34 39.49158 143.89908 35953 ft 403 kts 229°
2026-04-23 09:35 39.45005 143.85095 35945 ft 403 kts 229°
2026-04-23 09:35 39.40828 143.80261 35934 ft 403 kts 229°
2026-04-23 09:36 39.36646 143.75428 35934 ft 404 kts 229°
2026-04-23 09:36 39.32447 143.70582 35934 ft 404 kts 229°
2026-04-23 09:37 39.28242 143.65742 35933 ft 405 kts 229°
2026-04-23 09:37 39.24030 143.60904 35934 ft 405 kts 229°
2026-04-23 09:38 39.19814 143.56067 35934 ft 406 kts 229°
2026-04-23 09:38 39.15610 143.51252 35934 ft 406 kts 229°
2026-04-23 09:39 39.11383 143.46419 35934 ft 406 kts 229°
2026-04-23 09:39 39.07146 143.41582 35934 ft 407 kts 229°
2026-04-23 09:40 39.02904 143.36746 35934 ft 407 kts 229°
2026-04-23 09:40 38.98659 143.31917 35934 ft 407 kts 229°
2026-04-23 09:41 38.94400 143.27150 35933 ft 411 kts 226°
2026-04-23 09:41 38.89438 143.23273 35932 ft 428 kts 213°
2026-04-23 09:41 38.86590 143.21975 35934 ft 440 kts 206°
2026-04-23 09:42 38.83577 143.21104 35933 ft 446 kts 202°
2026-04-23 09:42 38.77425 143.19714 35932 ft 450 kts 201°
2026-04-23 09:43 38.71241 143.18428 35937 ft 450 kts 201°
2026-04-23 09:43 38.65104 143.17111 35932 ft 450 kts 201°
2026-04-23 09:44 38.58928 143.15749 35932 ft 450 kts 201°
2026-04-23 09:44 38.52752 143.14375 35934 ft 450 kts 201°
2026-04-23 09:45 38.46575 143.13006 35943 ft 450 kts 201°
2026-04-23 09:45 38.40397 143.11643 35944 ft 450 kts 201°
2026-04-23 09:46 38.38867 143.11306 35944 ft 450 kts 201°
2026-04-23 09:46 38.32689 143.09946 35943 ft 451 kts 201°
2026-04-23 09:47 38.26500 143.08585 35943 ft 450 kts 201°
2026-04-23 09:47 38.20329 143.07233 35944 ft 450 kts 201°
2026-04-23 09:48 38.14155 143.05882 35943 ft 450 kts 201°
2026-04-23 09:48 38.07987 143.04529 35943 ft 450 kts 201°
2026-04-23 09:49 38.01819 143.03181 35944 ft 450 kts 201°
2026-04-23 09:49 37.95687 143.01843 35943 ft 451 kts 200°
2026-04-23 09:50 37.89500 143.00497 35943 ft 452 kts 200°
2026-04-23 09:50 37.83296 142.99151 35943 ft 452 kts 200°
2026-04-23 09:51 37.77092 142.97805 35943 ft 452 kts 200°
2026-04-23 09:51 37.70879 142.96463 35943 ft 452 kts 200°
2026-04-23 09:52 37.64675 142.95122 35943 ft 452 kts 200°
2026-04-23 09:52 37.58470 142.93780 35943 ft 452 kts 200°
2026-04-23 09:53 37.52264 142.92439 35943 ft 452 kts 200°
2026-04-23 09:53 37.46075 142.91111 35943 ft 451 kts 200°
2026-04-23 09:54 37.39917 142.89792 35943 ft 452 kts 200°
2026-04-23 09:54 37.39066 142.89610 35943 ft 452 kts 200°
2026-04-23 09:55 37.37260 142.89222 35943 ft 452 kts 200°
2026-04-23 09:56 37.31177 142.87938 35949 ft 435 kts 200°
2026-04-23 09:56 37.25244 142.86680 35945 ft 430 kts 200°
2026-04-23 09:57 37.19349 142.85413 35943 ft 429 kts 200°
2026-04-23 09:57 37.13499 142.84019 35944 ft 423 kts 205°
2026-04-23 09:58 37.08154 142.81359 35944 ft 408 kts 216°
2026-04-23 09:58 37.03182 142.77965 35943 ft 406 kts 217°
2026-04-23 09:59 36.98274 142.74455 35944 ft 406 kts 217°
2026-04-23 09:59 36.93397 142.70980 35943 ft 406 kts 217°
2026-04-23 10:00 36.89307 142.68091 35943 ft 406 kts 217°
2026-04-23 10:00 36.83545 142.64042 35944 ft 406 kts 217°
2026-04-23 10:01 36.78617 142.60587 35943 ft 407 kts 217°
2026-04-23 10:01 36.73679 142.57134 35934 ft 407 kts 217°
2026-04-23 10:02 36.68768 142.53701 35934 ft 407 kts 217°
2026-04-23 10:02 36.63838 142.50253 35934 ft 407 kts 217°
2026-04-23 10:03 36.58900 142.46810 35915 ft 407 kts 217°
2026-04-23 10:03 36.53947 142.43362 35915 ft 407 kts 216°
2026-04-23 10:04 36.48991 142.39919 35915 ft 408 kts 216°
2026-04-23 10:04 36.44064 142.36500 35915 ft 408 kts 216°
2026-04-23 10:05 36.39110 142.33067 35915 ft 407 kts 216°
2026-04-23 10:05 36.34148 142.29633 35916 ft 407 kts 216°
2026-04-23 10:06 36.29195 142.26210 35838 ft 407 kts 216°
2026-04-23 10:06 36.26697 142.24490 35608 ft 413 kts 216°
2026-04-23 10:06 36.24177 142.22751 35349 ft 416 kts 216°
2026-04-23 10:06 36.21635 142.20996 35102 ft 419 kts 216°
2026-04-23 10:07 36.19084 142.19239 34849 ft 421 kts 216°
2026-04-23 10:07 36.16555 142.17499 34600 ft 422 kts 216°
2026-04-23 10:07 36.13977 142.15726 34338 ft 424 kts 216°
2026-04-23 10:07 36.11407 142.13964 33565 ft 423 kts 216°
2026-04-23 10:08 36.08830 142.12197 32635 ft 425 kts 216°
2026-04-23 10:08 36.06240 142.10423 31649 ft 427 kts 216°
2026-04-23 10:08 36.03638 142.08638 30657 ft 429 kts 216°
2026-04-23 10:09 35.98394 142.05003 28681 ft 433 kts 216°
2026-04-23 10:09 35.95779 142.03192 27954 ft 429 kts 215°
2026-04-23 10:09 35.93188 142.01404 27208 ft 425 kts 215°
2026-04-23 10:09 35.90621 141.99633 26451 ft 421 kts 215°
2026-04-23 10:10 35.88064 141.97872 25695 ft 418 kts 215°
2026-04-23 10:10 35.85532 141.96128 24945 ft 415 kts 214°
2026-04-23 10:10 35.83147 141.94193 24204 ft 406 kts 223°
2026-04-23 10:10 35.81152 141.91798 23469 ft 397 kts 233°
2026-04-23 10:11 35.79686 141.89011 22747 ft 391 kts 245°
2026-04-23 10:11 35.78790 141.85882 22038 ft 385 kts 256°
2026-04-23 10:11 35.78269 141.82665 21323 ft 382 kts 259°
2026-04-23 10:11 35.77884 141.79428 20609 ft 381 kts 261°
2026-04-23 10:12 35.77634 141.76191 19842 ft 381 kts 265°
2026-04-23 10:12 35.77568 141.72941 19101 ft 380 kts 266°
2026-04-23 10:12 35.77519 141.69685 18324 ft 379 kts 266°
2026-04-23 10:12 35.77463 141.66440 17544 ft 379 kts 266°
2026-04-23 10:13 35.77401 141.63189 16754 ft 379 kts 266°
2026-04-23 10:13 35.77337 141.59945 15940 ft 379 kts 266°
2026-04-23 10:13 35.77293 141.57798 15401 ft 377 kts 266°
2026-04-23 10:13 35.77202 141.53505 14315 ft 372 kts 266°
2026-04-23 10:14 35.77149 141.51401 13776 ft 369 kts 265°
2026-04-23 10:14 35.76761 141.48312 12999 ft 362 kts 252°
2026-04-23 10:14 35.75704 141.45527 12213 ft 357 kts 236°
2026-04-23 10:14 35.74108 141.43209 11441 ft 353 kts 227°
2026-04-23 10:15 35.71849 141.40433 10892 ft 335 kts 225°
2026-04-23 10:15 35.70752 141.39098 10822 ft 320 kts 226°
2026-04-23 10:15 35.69236 141.37249 10725 ft 301 kts 225°
2026-04-23 10:15 35.67794 141.35478 10614 ft 285 kts 226°
2026-04-23 10:16 35.66409 141.33785 10514 ft 268 kts 226°
2026-04-23 10:16 35.65139 141.32225 10400 ft 255 kts 226°
2026-04-23 10:16 35.63919 141.30716 10282 ft 242 kts 226°
2026-04-23 10:16 35.62758 141.29281 10178 ft 231 kts 226°
2026-04-23 10:17 35.61654 141.27918 10071 ft 220 kts 226°
2026-04-23 10:17 35.60599 141.26615 9929 ft 210 kts 226°
2026-04-23 10:17 35.59591 141.25372 9822 ft 200 kts 225°
2026-04-23 10:17 35.58631 141.24189 9698 ft 192 kts 225°
2026-04-23 10:18 35.57693 141.23036 9572 ft 191 kts 225°
2026-04-23 10:18 35.56753 141.21880 9411 ft 191 kts 225°
2026-04-23 10:18 35.55811 141.20725 9199 ft 191 kts 224°
2026-04-23 10:18 35.54799 141.19655 8967 ft 193 kts 213°
2026-04-23 10:19 35.53622 141.18815 8913 ft 198 kts 208°
2026-04-23 10:19 35.52419 141.18053 8906 ft 197 kts 206°
2026-04-23 10:19 35.51193 141.17296 8906 ft 194 kts 207°
2026-04-23 10:19 35.50001 141.16550 8907 ft 195 kts 207°
2026-04-23 10:20 35.48801 141.15782 8901 ft 194 kts 206°
2026-04-23 10:20 35.47586 141.15037 8904 ft 194 kts 207°
2026-04-23 10:20 35.46392 141.14276 8910 ft 195 kts 209°
2026-04-23 10:20 35.45206 141.13501 8904 ft 193 kts 208°
2026-04-23 10:21 35.44009 141.12745 8903 ft 193 kts 207°
2026-04-23 10:21 35.42810 141.11999 8902 ft 193 kts 207°
2026-04-23 10:21 35.41611 141.11289 8889 ft 188 kts 202°
2026-04-23 10:21 35.40425 141.10865 8933 ft 166 kts 193°
2026-04-23 10:22 35.39345 141.10618 8943 ft 154 kts 190°
2026-04-23 10:22 35.38291 141.10382 8926 ft 154 kts 192°
2026-04-23 10:22 35.37235 141.10140 8902 ft 154 kts 192°
2026-04-23 10:22 35.36181 141.09891 8892 ft 154 kts 191°
2026-04-23 10:23 35.35127 141.09648 8904 ft 154 kts 193°
2026-04-23 10:23 35.34066 141.09400 8905 ft 155 kts 191°
2026-04-23 10:23 35.33011 141.09162 8909 ft 154 kts 191°
2026-04-23 10:23 35.31952 141.08930 8908 ft 155 kts 191°
2026-04-23 10:24 35.30941 141.08563 8895 ft 153 kts 205°
2026-04-23 10:24 35.30001 141.07952 8902 ft 153 kts 210°
2026-04-23 10:24 35.29087 141.07297 8887 ft 152 kts 210°
2026-04-23 10:24 35.28174 141.06650 8885 ft 152 kts 210°
2026-04-23 10:25 35.27260 141.06004 8885 ft 152 kts 210°
2026-04-23 10:25 35.26347 141.05360 8888 ft 152 kts 211°
2026-04-23 10:25 35.25422 141.04713 8882 ft 155 kts 210°
2026-04-23 10:25 35.24499 141.04065 8879 ft 152 kts 210°
2026-04-23 10:26 35.23578 141.03426 8881 ft 151 kts 211°
2026-04-23 10:26 35.22673 141.02783 8882 ft 151 kts 211°
2026-04-23 10:26 35.21867 141.01963 8883 ft 152 kts 227°
2026-04-23 10:26 35.21203 141.00967 8882 ft 151 kts 231°
2026-04-23 10:27 35.20573 140.99964 8886 ft 151 kts 231°
2026-04-23 10:27 35.19932 140.98945 8882 ft 151 kts 231°
2026-04-23 10:27 35.19290 140.97925 8889 ft 151 kts 231°
2026-04-23 10:27 35.18648 140.96908 8889 ft 151 kts 231°
2026-04-23 10:28 35.18004 140.95893 8880 ft 151 kts 231°
2026-04-23 10:28 35.17360 140.94877 8881 ft 151 kts 231°
2026-04-23 10:28 35.16712 140.93865 8898 ft 151 kts 229°
2026-04-23 10:28 35.16059 140.92855 8882 ft 152 kts 232°
2026-04-23 10:29 35.15417 140.91839 8880 ft 151 kts 232°
2026-04-23 10:29 35.14782 140.90835 8881 ft 150 kts 231°
2026-04-23 10:29 35.14149 140.89818 8881 ft 149 kts 232°
2026-04-23 10:29 35.13666 140.88689 8870 ft 151 kts 250°
2026-04-23 10:30 35.13404 140.87461 8879 ft 150 kts 255°
2026-04-23 10:30 35.13182 140.86193 8880 ft 153 kts 257°
2026-04-23 10:30 35.12971 140.84909 8881 ft 154 kts 255°
2026-04-23 10:30 35.12744 140.83627 8882 ft 155 kts 254°
2026-04-23 10:31 35.12514 140.82342 8890 ft 153 kts 254°
2026-04-23 10:31 35.12289 140.81075 8878 ft 152 kts 254°
2026-04-23 10:31 35.12060 140.79819 8879 ft 151 kts 253°
2026-04-23 10:31 35.11850 140.78546 8878 ft 154 kts 258°
2026-04-23 10:32 35.11843 140.77235 8869 ft 156 kts 275°
2026-04-23 10:32 35.12174 140.75963 8873 ft 161 kts 291°
2026-04-23 10:32 35.12834 140.74844 8878 ft 165 kts 311°
2026-04-23 10:32 35.13780 140.74047 8812 ft 168 kts 330°
2026-04-23 10:33 35.14921 140.73669 8675 ft 171 kts 352°
2026-04-23 10:33 35.16119 140.73756 8542 ft 173 kts
2026-04-23 10:33 35.17322 140.73892 8440 ft 174 kts
2026-04-23 10:33 35.18526 140.73921 8384 ft 172 kts 358°
2026-04-23 10:34 35.19719 140.73911 8335 ft 171 kts 357°
2026-04-23 10:34 35.20908 140.73883 8287 ft 171 kts 356°
2026-04-23 10:34 35.22094 140.73847 8228 ft 170 kts 356°
2026-04-23 10:34 35.23278 140.73808 8163 ft 170 kts 356°
2026-04-23 10:35 35.24462 140.73768 8093 ft 170 kts 356°
2026-04-23 10:35 35.25641 140.73726 8028 ft 169 kts 356°
2026-04-23 10:35 35.26819 140.73683 7986 ft 169 kts 356°
2026-04-23 10:35 35.27995 140.73640 7937 ft 169 kts 357°
2026-04-23 10:36 35.29158 140.73608 7916 ft 169 kts 357°
2026-04-23 10:36 35.30335 140.73564 7918 ft 169 kts 356°
2026-04-23 10:36 35.31512 140.73514 7929 ft 170 kts 355°
2026-04-23 10:36 35.32695 140.73456 7988 ft 169 kts 357°
2026-04-23 10:37 35.33879 140.73417 8174 ft 169 kts 356°
2026-04-23 10:37 35.35065 140.73355 8467 ft 170 kts 357°
2026-04-23 10:37 35.36243 140.73310 8852 ft 169 kts 356°
2026-04-23 10:37 35.37421 140.73270 9188 ft 170 kts 356°
2026-04-23 10:38 35.38611 140.73235 9497 ft 172 kts 355°
2026-04-23 10:38 35.39806 140.73168 9766 ft 172 kts 351°
2026-04-23 10:38 35.40960 140.72828 9985 ft 169 kts 332°
2026-04-23 10:38 35.41911 140.72038 10183 ft 162 kts 308°
2026-04-23 10:39 35.42539 140.70929 10204 ft 157 kts 290°
2026-04-23 10:39 35.42940 140.69696 9909 ft 156 kts 284°
2026-04-23 10:39 35.43302 140.68437 9595 ft 159 kts 284°
2026-04-23 10:39 35.43674 140.67147 9281 ft 162 kts 285°
2026-04-23 10:40 35.44056 140.65847 8962 ft 163 kts 286°
2026-04-23 10:40 35.44449 140.64533 8634 ft 165 kts 288°
2026-04-23 10:40 35.45011 140.63297 8302 ft 168 kts 306°
2026-04-23 10:40 35.45819 140.62266 7995 ft 168 kts 315°
2026-04-23 10:41 35.46677 140.61297 7663 ft 167 kts 315°
2026-04-23 10:41 35.47531 140.60338 7337 ft 166 kts 315°
2026-04-23 10:41 35.48381 140.59380 7019 ft 166 kts 315°
2026-04-23 10:41 35.49225 140.58423 6692 ft 164 kts 315°
2026-04-23 10:42 35.50062 140.57479 6356 ft 161 kts 315°
2026-04-23 10:42 35.50884 140.56542 6042 ft 163 kts 315°
2026-04-23 10:42 35.51712 140.55621 5722 ft 163 kts 319°
2026-04-23 10:42 35.52602 140.54774 5390 ft 160 kts 324°
2026-04-23 10:43 35.53544 140.54037 5077 ft 160 kts 328°
2026-04-23 10:43 35.54505 140.53344 4759 ft 160 kts 329°
2026-04-23 10:43 35.55470 140.52657 4433 ft 161 kts 329°
2026-04-23 10:43 35.56432 140.51968 4105 ft 159 kts 329°
2026-04-23 10:44 35.57395 140.51278 3971 ft 161 kts 329°
2026-04-23 10:44 35.58366 140.50588 3962 ft 161 kts 329°
2026-04-23 10:44 35.59330 140.49893 3960 ft 160 kts 329°
2026-04-23 10:44 35.60293 140.49199 3961 ft 160 kts 329°
2026-04-23 10:45 35.61253 140.48508 3961 ft 160 kts 329°
2026-04-23 10:45 35.62198 140.47834 3943 ft 154 kts 327°
2026-04-23 10:45 35.63136 140.47163 3668 ft 158 kts 329°
2026-04-23 10:45 35.64090 140.46483 3359 ft 165 kts 330°
2026-04-23 10:46 35.65087 140.45764 3024 ft 169 kts 329°
2026-04-23 10:46 35.66118 140.45010 2740 ft 175 kts 329°
2026-04-23 10:46 35.67182 140.44230 2410 ft 182 kts 330°
2026-04-23 10:46 35.68275 140.43421 2110 ft 184 kts 330°
2026-04-23 10:47 35.69364 140.42617 1698 ft 179 kts 330°
2026-04-23 10:47 35.70410 140.41879 1358 ft 166 kts 331°
2026-04-23 10:47 35.71348 140.41202 1044 ft 153 kts 330°
2026-04-23 10:47 35.72233 140.40561 767 ft 143 kts 331°
2026-04-23 10:48 35.73069 140.39964 508 ft 138 kts 331°
2026-04-23 10:48 35.73879 140.39393 321 ft 145 kts 331°
2026-04-23 10:48 35.74756 140.38768 168 ft 145 kts 329°
2026-04-23 10:48 35.75543 140.38197 152 ft 115 kts 329°
2026-04-23 10:49 35.76117 140.37787 150 ft 83 kts 329°
2026-04-23 10:49 35.76534 140.37489 151 ft 59 kts 330°
2026-04-23 10:49 35.76690 140.37378 152 ft 50 kts 330°
2026-04-23 10:49 35.76832 140.37275 150 ft 2 kts 327°
2026-04-23 10:50 35.76850 140.37262 150 ft 8 kts 328°
2026-04-23 10:50 35.76910 140.37217 150 ft 13 kts 329°
2026-04-23 10:50 35.76999 140.37153 148 ft 17 kts 330°
2026-04-23 10:50 35.77114 140.37070 148 ft 21 kts 328°
2026-04-23 10:51 35.77258 140.37017 148 ft 23 kts
2026-04-23 10:51 35.77333 140.37117 149 ft 10 kts 93°
2026-04-23 10:51 35.77293 140.37188 149 ft 12 kts 143°
2026-04-23 10:51 35.77215 140.37247 149 ft 0 kts 149°
2026-04-23 10:55 35.77150 140.37294 149 ft 22 kts 149°
2026-04-23 10:55 35.77010 140.37396 150 ft 25 kts 149°
2026-04-23 10:56 35.76928 140.37456 150 ft 11 kts 150°
2026-04-23 10:56 35.76805 140.37544 150 ft 24 kts 149°
2026-04-23 10:56 35.76654 140.37654 150 ft 27 kts 149°
2026-04-23 10:56 35.76596 140.37696 150 ft 2 kts 149°
2026-04-23 10:57 35.76568 140.37758 150 ft 5 kts 90°
2026-04-23 10:57 35.76568 140.37761 150 ft 0 kts 84°
2026-04-23 10:57 35.76580 140.37798 150 ft 0 kts 66°
2026-04-23 10:57 35.76584 140.37808 150 ft 4 kts 64°
2026-04-23 10:58 35.76618 140.37882 150 ft 11 kts 59°
2026-04-23 10:58 35.76639 140.37925 150 ft 0 kts 59°
2026-04-23 10:58 35.76644 140.37936 150 ft 4 kts 59°
2026-04-23 10:59 35.76662 140.37987 150 ft 8 kts 83°
2026-04-23 10:59 35.76629 140.38053 150 ft 12 kts 140°
2026-04-23 10:59 35.76597 140.38077 150 ft 0 kts 155°
2026-04-23 10:59 35.76562 140.38085 150 ft 10 kts 170°
2026-04-23 11:00 35.76506 140.38145 150 ft 11 kts 126°
2026-04-23 11:00 35.76501 140.38153 150 ft 1 kts 126°
2026-04-23 11:00 35.76490 140.38171 150 ft 0 kts 126°
2026-04-23 11:01 35.76491 140.38171 150 ft 0 kts 126°
2026-04-23 11:26 35.76491 140.38170 150 ft 0 kts 126°